2016 Cux-Wetter.de -Die Nutzung der Wetterdaten nur mit ausdrcklicher Genehmigung
Wetterdaten: Montag, 19.12.2016
Datum Zeit Temp. A. Feuchte A. Luftdruck Regen Wind Richtung Richtung Sonnenschein Solar Taupunkt Windchill Windben
19.12.2016 00:00 4,8 C 98 % 1031,2 hPa 0,0 l/m 0,0 km/h (0 Bft) O-NO 57 0 min 0 W/m 4,5 C 4,8 C 0,0 km/h (0 Bft)
19.12.2016 00:03 4,8 C 98 % 1031,2 hPa 0,0 l/m 0,1 km/h (0 Bft) O-NO 57 0 min 0 W/m 4,5 C 4,8 C 1,6 km/h (1 Bft)
19.12.2016 00:06 4,8 C 98 % 1031,2 hPa 0,0 l/m 0,5 km/h (0 Bft) O-NO 57 0 min 0 W/m 4,5 C 4,8 C 1,6 km/h (1 Bft)
19.12.2016 00:09 4,8 C 98 % 1031,2 hPa 0,0 l/m 0,1 km/h (0 Bft) O-NO 57 0 min 0 W/m 4,5 C 4,8 C 1,6 km/h (1 Bft)
19.12.2016 00:12 4,8 C 98 % 1031,2 hPa 0,0 l/m 0,0 km/h (0 Bft) O-NO 57 0 min 0 W/m 4,5 C 4,8 C 0,0 km/h (0 Bft)
19.12.2016 00:15 4,8 C 98 % 1031,1 hPa 0,0 l/m 0,1 km/h (0 Bft) O-NO 57 0 min 0 W/m 4,5 C 4,8 C 1,6 km/h (1 Bft)
19.12.2016 00:18 4,9 C 98 % 1031,1 hPa 0,0 l/m 0,1 km/h (0 Bft) O-NO 57 0 min 0 W/m 4,6 C 4,9 C 1,6 km/h (1 Bft)
19.12.2016 00:21 4,9 C 98 % 1031,2 hPa 0,0 l/m 0,3 km/h (0 Bft) O-NO 57 0 min 0 W/m 4,6 C 4,9 C 1,6 km/h (1 Bft)
19.12.2016 00:24 4,9 C 98 % 1031,2 hPa 0,0 l/m 0,0 km/h (0 Bft) O-NO 57 0 min 0 W/m 4,6 C 4,9 C 0,0 km/h (0 Bft)
19.12.2016 00:27 4,9 C 98 % 1031,2 hPa 0,0 l/m 0,0 km/h (0 Bft) O-NO 57 0 min 0 W/m 4,6 C 4,9 C 0,0 km/h (0 Bft)
19.12.2016 00:30 4,9 C 98 % 1031,2 hPa 0,0 l/m 0,1 km/h (0 Bft) O-NO 57 0 min 0 W/m 4,6 C 4,9 C 1,6 km/h (1 Bft)
19.12.2016 00:33 4,9 C 98 % 1031,1 hPa 0,0 l/m 0,4 km/h (0 Bft) O-NO 57 0 min 0 W/m 4,6 C 4,9 C 1,6 km/h (1 Bft)
19.12.2016 00:36 4,9 C 98 % 1031,1 hPa 0,0 l/m 0,2 km/h (0 Bft) O-NO 57 0 min 0 W/m 4,6 C 4,9 C 1,6 km/h (1 Bft)
19.12.2016 00:39 4,9 C 98 % 1031,0 hPa 0,0 l/m 0,0 km/h (0 Bft) O-NO 57 0 min 0 W/m 4,6 C 4,9 C 1,6 km/h (1 Bft)
19.12.2016 00:42 4,9 C 98 % 1031,0 hPa 0,0 l/m 0,0 km/h (0 Bft) O-NO 57 0 min 0 W/m 4,6 C 4,9 C 0,0 km/h (0 Bft)
19.12.2016 00:45 5,0 C 98 % 1031,0 hPa 0,0 l/m 0,0 km/h (0 Bft) O-NO 57 0 min 0 W/m 4,7 C 5,0 C 0,0 km/h (0 Bft)
19.12.2016 00:48 5,0 C 98 % 1031,0 hPa 0,0 l/m 0,2 km/h (0 Bft) O-NO 57 0 min 0 W/m 4,7 C 5,0 C 1,6 km/h (1 Bft)
19.12.2016 00:51 5,0 C 98 % 1031,0 hPa 0,0 l/m 0,0 km/h (0 Bft) O-NO 57 0 min 0 W/m 4,7 C 5,0 C 0,0 km/h (0 Bft)
19.12.2016 00:54 5,0 C 98 % 1031,0 hPa 0,0 l/m 0,0 km/h (0 Bft) O-NO 57 0 min 0 W/m 4,7 C 5,0 C 1,6 km/h (1 Bft)
19.12.2016 00:57 5,0 C 98 % 1030,9 hPa 0,0 l/m 0,0 km/h (0 Bft) O-NO 57 0 min 0 W/m 4,7 C 5,0 C 1,6 km/h (1 Bft)
19.12.2016 01:00 5,0 C 98 % 1031,0 hPa 0,0 l/m 0,0 km/h (0 Bft) O-NO 57 0 min 0 W/m 4,7 C 5,0 C 0,0 km/h (0 Bft)
19.12.2016 01:03 5,1 C 98 % 1031,0 hPa 0,0 l/m 0,0 km/h (0 Bft) O-NO 57 0 min 0 W/m 4,8 C 5,1 C 1,6 km/h (1 Bft)
19.12.2016 01:06 5,1 C 98 % 1030,9 hPa 0,0 l/m 0,2 km/h (0 Bft) O-NO 57 0 min 0 W/m 4,8 C 5,1 C 1,6 km/h (1 Bft)
19.12.2016 01:09 5,1 C 98 % 1030,9 hPa 0,0 l/m 0,0 km/h (0 Bft) O-NO 57 0 min 0 W/m 4,8 C 5,1 C 0,0 km/h (0 Bft)
19.12.2016 01:12 5,1 C 98 % 1030,9 hPa 0,0 l/m 0,0 km/h (0 Bft) O-NO 57 0 min 0 W/m 4,8 C 5,1 C 0,0 km/h (0 Bft)
19.12.2016 01:15 5,1 C 98 % 1030,8 hPa 0,0 l/m 0,0 km/h (0 Bft) O-NO 57 0 min 0 W/m 4,8 C 5,1 C 0,0 km/h (0 Bft)
19.12.2016 01:18 5,1 C 98 % 1030,8 hPa 0,0 l/m 0,0 km/h (0 Bft) O-NO 57 0 min 0 W/m 4,8 C 5,1 C 0,0 km/h (0 Bft)
19.12.2016 01:21 5,1 C 98 % 1030,7 hPa 0,0 l/m 0,0 km/h (0 Bft) O-NO 57 0 min 0 W/m 4,8 C 5,1 C 0,0 km/h (0 Bft)
19.12.2016 01:24 5,1 C 98 % 1030,7 hPa 0,0 l/m 0,0 km/h (0 Bft) O-NO 57 0 min 0 W/m 4,8 C 5,1 C 0,0 km/h (0 Bft)
19.12.2016 01:27 5,1 C 98 % 1030,7 hPa 0,0 l/m 0,0 km/h (0 Bft) O-NO 57 0 min 0 W/m 4,8 C 5,1 C 0,0 km/h (0 Bft)
19.12.2016 01:30 5,1 C 98 % 1030,7 hPa 0,0 l/m 0,0 km/h (0 Bft) O-NO 57 0 min 0 W/m 4,8 C 5,1 C 0,0 km/h (0 Bft)
19.12.2016 01:33 5,1 C 98 % 1030,8 hPa 0,0 l/m 0,0 km/h (0 Bft) O-NO 57 0 min 0 W/m 4,8 C 5,1 C 0,0 km/h (0 Bft)
19.12.2016 01:36 5,1 C 98 % 1030,7 hPa 0,0 l/m 0,0 km/h (0 Bft) O-NO 57 0 min 0 W/m 4,8 C 5,1 C 0,0 km/h (0 Bft)
19.12.2016 01:39 5,1 C 98 % 1030,8 hPa 0,0 l/m 0,0 km/h (0 Bft) O-NO 57 0 min 0 W/m 4,8 C 5,1 C 0,0 km/h (0 Bft)
19.12.2016 01:42 5,1 C 98 % 1031,0 hPa 0,0 l/m 0,0 km/h (0 Bft) O-NO 57 0 min 0 W/m 4,8 C 5,1 C 0,0 km/h (0 Bft)
19.12.2016 01:45 5,1 C 98 % 1030,9 hPa 0,0 l/m 0,0 km/h (0 Bft) O-NO 57 0 min 0 W/m 4,8 C 5,1 C 0,0 km/h (0 Bft)
19.12.2016 01:48 5,1 C 98 % 1031,0 hPa 0,0 l/m 0,0 km/h (0 Bft) O-NO 57 0 min 0 W/m 4,8 C 5,1 C 0,0 km/h (0 Bft)
19.12.2016 01:51 5,1 C 98 % 1031,0 hPa 0,0 l/m 0,0 km/h (0 Bft) O-NO 57 0 min 0 W/m 4,8 C 5,1 C 0,0 km/h (0 Bft)
19.12.2016 01:54 5,1 C 98 % 1031,0 hPa 0,0 l/m 0,0 km/h (0 Bft) O-NO 57 0 min 0 W/m 4,8 C 5,1 C 0,0 km/h (0 Bft)
19.12.2016 01:57 5,1 C 98 % 1031,2 hPa 0,0 l/m 0,0 km/h (0 Bft) O-NO 57 0 min 0 W/m 4,8 C 5,1 C 0,0 km/h (0 Bft)
19.12.2016 02:00 5,1 C 98 % 1031,1 hPa 0,0 l/m 0,0 km/h (0 Bft) O-NO 57 0 min 0 W/m 4,8 C 5,1 C 0,0 km/h (0 Bft)
19.12.2016 02:03 5,1 C 98 % 1031,1 hPa 0,0 l/m 0,0 km/h (0 Bft) O-NO 57 0 min 0 W/m 4,8 C 5,1 C 0,0 km/h (0 Bft)
19.12.2016 02:06 5,1 C 98 % 1031,1 hPa 0,0 l/m 0,1 km/h (0 Bft) O-NO 57 0 min 0 W/m 4,8 C 5,1 C 1,6 km/h (1 Bft)
19.12.2016 02:09 5,1 C 98 % 1031,1 hPa 0,0 l/m 0,4 km/h (0 Bft) O-NO 57 0 min 0 W/m 4,8 C 5,1 C 1,6 km/h (1 Bft)
19.12.2016 02:12 5,1 C 98 % 1031,2 hPa 0,0 l/m 0,0 km/h (0 Bft) O-NO 57 0 min 0 W/m 4,8 C 5,1 C 1,6 km/h (1 Bft)
19.12.2016 02:15 5,1 C 98 % 1031,2 hPa 0,0 l/m 0,0 km/h (0 Bft) O-NO 57 0 min 0 W/m 4,8 C 5,1 C 0,0 km/h (0 Bft)
19.12.2016 02:18 5,1 C 98 % 1031,2 hPa 0,0 l/m 0,0 km/h (0 Bft) O-NO 57 0 min 0 W/m 4,8 C 5,1 C 0,0 km/h (0 Bft)
19.12.2016 02:21 5,1 C 98 % 1031,2 hPa 0,0 l/m 0,0 km/h (0 Bft) O-NO 57 0 min 0 W/m 4,8 C 5,1 C 1,6 km/h (1 Bft)
19.12.2016 02:24 5,1 C 98 % 1031,1 hPa 0,0 l/m 0,0 km/h (0 Bft) O-NO 57 0 min 0 W/m 4,8 C 5,1 C 0,0 km/h (0 Bft)
19.12.2016 02:27 5,1 C 98 % 1031,2 hPa 0,0 l/m 0,1 km/h (0 Bft) O-NO 57 0 min 0 W/m 4,8 C 5,1 C 1,6 km/h (1 Bft)
19.12.2016 02:30 5,1 C 98 % 1031,2 hPa 0,0 l/m 0,1 km/h (0 Bft) O-NO 57 0 min 0 W/m 4,8 C 5,1 C 1,6 km/h (1 Bft)
19.12.2016 02:33 5,1 C 98 % 1031,2 hPa 0,0 l/m 0,0 km/h (0 Bft) O-NO 57 0 min 0 W/m 4,8 C 5,1 C 0,0 km/h (0 Bft)
19.12.2016 02:36 5,1 C 98 % 1031,1 hPa 0,0 l/m 0,0 km/h (0 Bft) O-NO 57 0 min 0 W/m 4,8 C 5,1 C 0,0 km/h (0 Bft)
19.12.2016 02:39 5,1 C 98 % 1031,1 hPa 0,0 l/m 0,1 km/h (0 Bft) O-NO 57 0 min 0 W/m 4,8 C 5,1 C 1,6 km/h (1 Bft)
19.12.2016 02:42 5,1 C 98 % 1031,1 hPa 0,0 l/m 0,0 km/h (0 Bft) O-NO 57 0 min 0 W/m 4,8 C 5,1 C 0,0 km/h (0 Bft)
19.12.2016 02:45 5,1 C 98 % 1031,2 hPa 0,0 l/m 0,0 km/h (0 Bft) O-NO 57 0 min 0 W/m 4,8 C 5,1 C 0,0 km/h (0 Bft)
19.12.2016 02:48 5,1 C 98 % 1031,1 hPa 0,0 l/m 0,0 km/h (0 Bft) O-NO 57 0 min 0 W/m 4,8 C 5,1 C 0,0 km/h (0 Bft)
19.12.2016 02:51 5,1 C 98 % 1031,1 hPa 0,0 l/m 0,0 km/h (0 Bft) O-NO 57 0 min 0 W/m 4,8 C 5,1 C 0,0 km/h (0 Bft)
19.12.2016 02:54 5,1 C 98 % 1031,0 hPa 0,0 l/m 0,0 km/h (0 Bft) O-NO 57 0 min 0 W/m 4,8 C 5,1 C 0,0 km/h (0 Bft)
19.12.2016 02:57 5,1 C 98 % 1031,0 hPa 0,0 l/m 0,0 km/h (0 Bft) O-NO 57 0 min 0 W/m 4,8 C 5,1 C 1,6 km/h (1 Bft)
19.12.2016 03:00 5,1 C 98 % 1031,0 hPa 0,0 l/m 0,0 km/h (0 Bft) O-NO 57 0 min 0 W/m 4,8 C 5,1 C 0,0 km/h (0 Bft)
19.12.2016 03:03 5,1 C 98 % 1030,8 hPa 0,0 l/m 0,1 km/h (0 Bft) O-NO 57 0 min 0 W/m 4,8 C 5,1 C 1,6 km/h (1 Bft)
19.12.2016 03:06 5,1 C 98 % 1030,8 hPa 0,0 l/m 1,1 km/h (1 Bft) O-NO 57 0 min 0 W/m 4,8 C 5,1 C 1,6 km/h (1 Bft)
19.12.2016 03:09 5,1 C 98 % 1030,8 hPa 0,0 l/m 0,0 km/h (0 Bft) O-NO 57 0 min 0 W/m 4,8 C 5,1 C 1,6 km/h (1 Bft)
19.12.2016 03:12 5,1 C 98 % 1030,8 hPa 0,0 l/m 1,2 km/h (1 Bft) O-NO 57 0 min 0 W/m 4,8 C 5,1 C 3,2 km/h (1 Bft)
19.12.2016 03:15 5,1 C 98 % 1030,8 hPa 0,0 l/m 0,9 km/h (0 Bft) O-NO 57 0 min 0 W/m 4,8 C 5,1 C 3,2 km/h (1 Bft)
19.12.2016 03:18 5,1 C 98 % 1030,8 hPa 0,0 l/m 0,0 km/h (0 Bft) O-NO 57 0 min 0 W/m 4,8 C 5,1 C 1,6 km/h (1 Bft)
19.12.2016 03:21 5,1 C 98 % 1030,8 hPa 0,0 l/m 0,0 km/h (0 Bft) O-NO 57 0 min 0 W/m 4,8 C 5,1 C 0,0 km/h (0 Bft)
19.12.2016 03:24 5,1 C 98 % 1030,8 hPa 0,0 l/m 0,0 km/h (0 Bft) O-NO 57 0 min 0 W/m 4,8 C 5,1 C 0,0 km/h (0 Bft)
19.12.2016 03:27 5,2 C 98 % 1030,8 hPa 0,0 l/m 0,0 km/h (0 Bft) O-NO 57 0 min 0 W/m 4,9 C 5,2 C 0,0 km/h (0 Bft)
19.12.2016 03:30 5,1 C 98 % 1030,8 hPa 0,0 l/m 0,0 km/h (0 Bft) O-NO 57 0 min 0 W/m 4,8 C 5,1 C 0,0 km/h (0 Bft)
19.12.2016 03:33 5,1 C 98 % 1030,7 hPa 0,0 l/m 0,0 km/h (0 Bft) O-NO 57 0 min 0 W/m 4,8 C 5,1 C 0,0 km/h (0 Bft)
19.12.2016 03:36 5,1 C 98 % 1030,7 hPa 0,0 l/m 0,3 km/h (0 Bft) O-NO 57 0 min 0 W/m 4,8 C 5,1 C 1,6 km/h (1 Bft)
19.12.2016 03:39 5,1 C 98 % 1030,8 hPa 0,0 l/m 0,0 km/h (0 Bft) O-NO 57 0 min 0 W/m 4,8 C 5,1 C 0,0 km/h (0 Bft)
19.12.2016 03:42 5,1 C 98 % 1030,7 hPa 0,0 l/m 0,0 km/h (0 Bft) O-NO 57 0 min 0 W/m 4,8 C 5,1 C 0,0 km/h (0 Bft)
19.12.2016 03:45 5,1 C 98 % 1030,6 hPa 0,0 l/m 0,0 km/h (0 Bft) O-NO 57 0 min 0 W/m 4,8 C 5,1 C 1,6 km/h (1 Bft)
19.12.2016 03:48 5,1 C 98 % 1030,7 hPa 0,0 l/m 0,1 km/h (0 Bft) O-NO 57 0 min 0 W/m 4,8 C 5,1 C 1,6 km/h (1 Bft)
19.12.2016 03:51 5,1 C 98 % 1030,8 hPa 0,0 l/m 0,0 km/h (0 Bft) O-NO 57 0 min 0 W/m 4,8 C 5,1 C 0,0 km/h (0 Bft)
19.12.2016 03:54 5,1 C 98 % 1030,9 hPa 0,0 l/m 0,0 km/h (0 Bft) O-NO 57 0 min 0 W/m 4,8 C 5,1 C 0,0 km/h (0 Bft)
19.12.2016 03:57 5,1 C 98 % 1030,9 hPa 0,0 l/m 0,5 km/h (0 Bft) O-NO 57 0 min 0 W/m 4,8 C 5,1 C 1,6 km/h (1 Bft)
19.12.2016 04:00 5,1 C 98 % 1031,0 hPa 0,0 l/m 0,4 km/h (0 Bft) O-NO 57 0 min 0 W/m 4,8 C 5,1 C 1,6 km/h (1 Bft)
19.12.2016 04:03 5,1 C 98 % 1031,0 hPa 0,0 l/m 0,1 km/h (0 Bft) O-NO 57 0 min 0 W/m 4,8 C 5,1 C 1,6 km/h (1 Bft)
19.12.2016 04:06 5,1 C 98 % 1031,1 hPa 0,0 l/m 0,5 km/h (0 Bft) O-NO 57 0 min 0 W/m 4,8 C 5,1 C 1,6 km/h (1 Bft)
19.12.2016 04:09 5,1 C 98 % 1031,0 hPa 0,0 l/m 0,1 km/h (0 Bft) O-NO 57 0 min 0 W/m 4,8 C 5,1 C 1,6 km/h (1 Bft)
19.12.2016 04:12 5,1 C 98 % 1030,9 hPa 0,0 l/m 0,0 km/h (0 Bft) O-NO 57 0 min 0 W/m 4,8 C 5,1 C 1,6 km/h (1 Bft)
19.12.2016 04:15 5,0 C 98 % 1030,8 hPa 0,0 l/m 0,0 km/h (0 Bft) O-NO 57 0 min 0 W/m 4,7 C 5,0 C 0,0 km/h (0 Bft)
19.12.2016 04:18 5,0 C 98 % 1030,7 hPa 0,0 l/m 0,0 km/h (0 Bft) O-NO 57 0 min 0 W/m 4,7 C 5,0 C 1,6 km/h (1 Bft)
19.12.2016 04:21 5,0 C 98 % 1030,4 hPa 0,0 l/m 0,5 km/h (0 Bft) O-NO 57 0 min 0 W/m 4,7 C 5,0 C 1,6 km/h (1 Bft)
19.12.2016 04:24 5,0 C 98 % 1030,5 hPa 0,0 l/m 0,0 km/h (0 Bft) O-NO 57 0 min 0 W/m 4,7 C 5,0 C 0,0 km/h (0 Bft)
19.12.2016 04:27 5,0 C 98 % 1030,5 hPa 0,0 l/m 0,0 km/h (0 Bft) O-NO 57 0 min 0 W/m 4,7 C 5,0 C 0,0 km/h (0 Bft)
19.12.2016 04:30 5,0 C 98 % 1030,4 hPa 0,0 l/m 1,5 km/h (1 Bft) O-NO 57 0 min 0 W/m 4,7 C 5,0 C 3,2 km/h (1 Bft)
19.12.2016 04:33 5,0 C 98 % 1030,4 hPa 0,0 l/m 1,9 km/h (1 Bft) O-NO 57 0 min 0 W/m 4,7 C 5,0 C 3,2 km/h (1 Bft)
19.12.2016 04:36 5,0 C 98 % 1030,3 hPa 0,0 l/m 0,4 km/h (0 Bft) O-NO 57 0 min 0 W/m 4,7 C 5,0 C 1,6 km/h (1 Bft)
19.12.2016 04:39 5,0 C 98 % 1030,2 hPa 0,0 l/m 1,3 km/h (1 Bft) O-NO 57 0 min 0 W/m 4,7 C 5,0 C 3,2 km/h (1 Bft)
19.12.2016 04:42 5,0 C 98 % 1030,1 hPa 0,0 l/m 1,1 km/h (1 Bft) O-NO 57 0 min 0 W/m 4,7 C 5,0 C 3,2 km/h (1 Bft)
19.12.2016 04:45 5,0 C 98 % 1030,1 hPa 0,0 l/m 0,0 km/h (0 Bft) O-NO 57 0 min 0 W/m 4,7 C 5,0 C 1,6 km/h (1 Bft)
19.12.2016 04:48 4,9 C 98 % 1030,1 hPa 0,0 l/m 0,0 km/h (0 Bft) O-NO 57 0 min 0 W/m 4,6 C 4,9 C 1,6 km/h (1 Bft)
19.12.2016 04:51 4,9 C 98 % 1030,0 hPa 0,0 l/m 0,1 km/h (0 Bft) O-NO 57 0 min 0 W/m 4,6 C 4,9 C 1,6 km/h (1 Bft)
19.12.2016 04:54 4,9 C 98 % 1030,0 hPa 0,0 l/m 0,0 km/h (0 Bft) O-NO 57 0 min 0 W/m 4,6 C 4,9 C 0,0 km/h (0 Bft)
19.12.2016 04:57 4,9 C 98 % 1030,0 hPa 0,0 l/m 0,3 km/h (0 Bft) O-NO 57 0 min 0 W/m 4,6 C 4,9 C 1,6 km/h (1 Bft)
19.12.2016 05:00 4,9 C 98 % 1030,0 hPa 0,0 l/m 0,2 km/h (0 Bft) O-NO 57 0 min 0 W/m 4,6 C 4,9 C 1,6 km/h (1 Bft)
19.12.2016 05:03 4,9 C 98 % 1029,9 hPa 0,0 l/m 0,0 km/h (0 Bft) O-NO 57 0 min 0 W/m 4,6 C 4,9 C 0,0 km/h (0 Bft)
19.12.2016 05:06 4,9 C 98 % 1029,9 hPa 0,0 l/m 0,0 km/h (0 Bft) O-NO 57 0 min 0 W/m 4,6 C 4,9 C 0,0 km/h (0 Bft)
19.12.2016 05:09 4,9 C 98 % 1030,0 hPa 0,0 l/m 0,0 km/h (0 Bft) O-NO 57 0 min 0 W/m 4,6 C 4,9 C 0,0 km/h (0 Bft)
19.12.2016 05:12 4,8 C 98 % 1030,0 hPa 0,0 l/m 0,3 km/h (0 Bft) O-NO 57 0 min 0 W/m 4,5 C 4,8 C 1,6 km/h (1 Bft)
19.12.2016 05:15 4,8 C 98 % 1029,9 hPa 0,0 l/m 0,2 km/h (0 Bft) O-NO 57 0 min 0 W/m 4,5 C 4,8 C 1,6 km/h (1 Bft)
19.12.2016 05:18 4,8 C 98 % 1029,9 hPa 0,0 l/m 0,0 km/h (0 Bft) O-NO 57 0 min 0 W/m 4,5 C 4,8 C 1,6 km/h (1 Bft)
19.12.2016 05:21 4,8 C 98 % 1029,8 hPa 0,0 l/m 0,0 km/h (0 Bft) O-NO 57 0 min 0 W/m 4,5 C 4,8 C 0,0 km/h (0 Bft)
19.12.2016 05:24 4,8 C 98 % 1029,7 hPa 0,0 l/m 0,1 km/h (0 Bft) O-NO 57 0 min 0 W/m 4,5 C 4,8 C 1,6 km/h (1 Bft)
19.12.2016 05:27 4,8 C 98 % 1029,6 hPa 0,0 l/m 0,1 km/h (0 Bft) O-NO 57 0 min 0 W/m 4,5 C 4,8 C 1,6 km/h (1 Bft)
19.12.2016 05:30 4,7 C 98 % 1029,5 hPa 0,0 l/m 0,1 km/h (0 Bft) O-NO 57 0 min 0 W/m 4,4 C 4,7 C 1,6 km/h (1 Bft)
19.12.2016 05:33 4,7 C 98 % 1029,5 hPa 0,0 l/m 0,0 km/h (0 Bft) O-NO 57 0 min 0 W/m 4,4 C 4,7 C 0,0 km/h (0 Bft)
19.12.2016 05:36 4,7 C 98 % 1029,6 hPa 0,0 l/m 0,1 km/h (0 Bft) O-NO 57 0 min 0 W/m 4,4 C 4,7 C 1,6 km/h (1 Bft)
19.12.2016 05:39 4,7 C 98 % 1029,7 hPa 0,0 l/m 0,1 km/h (0 Bft) O-NO 57 0 min 0 W/m 4,4 C 4,7 C 1,6 km/h (1 Bft)
19.12.2016 05:42 4,7 C 98 % 1029,7 hPa 0,0 l/m 0,1 km/h (0 Bft) O-NO 57 0 min 0 W/m 4,4 C 4,7 C 1,6 km/h (1 Bft)
19.12.2016 05:45 4,7 C 97 % 1029,7 hPa 0,0 l/m 0,1 km/h (0 Bft) O-NO 57 0 min 0 W/m 4,3 C 4,7 C 1,6 km/h (1 Bft)
19.12.2016 05:48 4,6 C 97 % 1029,8 hPa 0,0 l/m 0,0 km/h (0 Bft) O-NO 57 0 min 0 W/m 4,2 C 4,6 C 0,0 km/h (0 Bft)
19.12.2016 05:51 4,6 C 97 % 1029,9 hPa 0,0 l/m 0,0 km/h (0 Bft) O-NO 57 0 min 0 W/m 4,2 C 4,6 C 1,6 km/h (1 Bft)
19.12.2016 05:54 4,6 C 97 % 1029,9 hPa 0,0 l/m 0,3 km/h (0 Bft) O-NO 57 0 min 0 W/m 4,2 C 4,6 C 1,6 km/h (1 Bft)
19.12.2016 05:57 4,6 C 97 % 1030,0 hPa 0,0 l/m 0,7 km/h (0 Bft) O-NO 57 0 min 0 W/m 4,2 C 4,6 C 1,6 km/h (1 Bft)
19.12.2016 06:00 4,6 C 97 % 1030,0 hPa 0,0 l/m 0,2 km/h (0 Bft) O-NO 57 0 min 0 W/m 4,2 C 4,6 C 1,6 km/h (1 Bft)
19.12.2016 06:03 4,5 C 98 % 1030,0 hPa 0,0 l/m 0,0 km/h (0 Bft) O-NO 57 0 min 0 W/m 4,2 C 4,5 C 0,0 km/h (0 Bft)
19.12.2016 06:06 4,5 C 98 % 1029,9 hPa 0,0 l/m 0,0 km/h (0 Bft) O-NO 57 0 min 0 W/m 4,2 C 4,5 C 1,6 km/h (1 Bft)
19.12.2016 06:09 4,5 C 98 % 1030,0 hPa 0,0 l/m 0,0 km/h (0 Bft) O-NO 57 0 min 0 W/m 4,2 C 4,5 C 0,0 km/h (0 Bft)
19.12.2016 06:12 4,5 C 98 % 1030,1 hPa 0,0 l/m 0,1 km/h (0 Bft) O-NO 57 0 min 0 W/m 4,2 C 4,5 C 1,6 km/h (1 Bft)
19.12.2016 06:15 4,4 C 98 % 1030,1 hPa 0,0 l/m 0,2 km/h (0 Bft) O-NO 57 0 min 0 W/m 4,1 C 4,4 C 1,6 km/h (1 Bft)
19.12.2016 06:18 4,4 C 98 % 1030,0 hPa 0,0 l/m 0,6 km/h (0 Bft) O-NO 57 0 min 0 W/m 4,1 C 4,4 C 3,2 km/h (1 Bft)
19.12.2016 06:21 4,4 C 98 % 1030,0 hPa 0,0 l/m 1,0 km/h (0 Bft) O-NO 57 0 min 0 W/m 4,1 C 4,4 C 3,2 km/h (1 Bft)
19.12.2016 06:24 4,4 C 98 % 1030,0 hPa 0,0 l/m 0,0 km/h (0 Bft) O-NO 57 0 min 0 W/m 4,1 C 4,4 C 0,0 km/h (0 Bft)
19.12.2016 06:27 4,4 C 98 % 1030,0 hPa 0,0 l/m 0,0 km/h (0 Bft) O-NO 57 0 min 0 W/m 4,1 C 4,4 C 1,6 km/h (1 Bft)
19.12.2016 06:30 4,4 C 98 % 1030,2 hPa 0,0 l/m 0,8 km/h (0 Bft) O-NO 57 0 min 0 W/m 4,1 C 4,4 C 1,6 km/h (1 Bft)
19.12.2016 06:33 4,4 C 98 % 1030,2 hPa 0,0 l/m 0,4 km/h (0 Bft) O-NO 57 0 min 0 W/m 4,1 C 4,4 C 1,6 km/h (1 Bft)
19.12.2016 06:36 4,4 C 98 % 1030,0 hPa 0,0 l/m 2,1 km/h (1 Bft) O-NO 78 0 min 0 W/m 4,1 C 4,4 C 4,8 km/h (1 Bft)
19.12.2016 06:39 4,4 C 98 % 1029,9 hPa 0,0 l/m 2,1 km/h (1 Bft) SO 127 0 min 0 W/m 4,1 C 4,4 C 4,8 km/h (1 Bft)
19.12.2016 06:42 4,4 C 98 % 1029,9 hPa 0,0 l/m 1,6 km/h (1 Bft) SO 127 0 min 0 W/m 4,1 C 4,4 C 3,2 km/h (1 Bft)
19.12.2016 06:45 4,4 C 98 % 1029,9 hPa 0,0 l/m 0,8 km/h (0 Bft) SO 127 0 min 0 W/m 4,1 C 4,4 C 1,6 km/h (1 Bft)
19.12.2016 06:48 4,4 C 98 % 1029,9 hPa 0,0 l/m 1,5 km/h (1 Bft) SO 127 0 min 0 W/m 4,1 C 4,4 C 3,2 km/h (1 Bft)
19.12.2016 06:51 4,4 C 98 % 1029,9 hPa 0,0 l/m 0,7 km/h (0 Bft) SO 127 0 min 0 W/m 4,1 C 4,4 C 1,6 km/h (1 Bft)
19.12.2016 06:54 4,4 C 98 % 1029,9 hPa 0,0 l/m 0,5 km/h (0 Bft) SO 127 0 min 0 W/m 4,1 C 4,4 C 1,6 km/h (1 Bft)
19.12.2016 06:57 4,4 C 98 % 1029,9 hPa 0,0 l/m 1,3 km/h (1 Bft) SO 127 0 min 0 W/m 4,1 C 4,4 C 3,2 km/h (1 Bft)
19.12.2016 07:00 4,4 C 98 % 1030,0 hPa 0,0 l/m 0,6 km/h (0 Bft) SO 127 0 min 0 W/m 4,1 C 4,4 C 3,2 km/h (1 Bft)
19.12.2016 07:03 4,4 C 98 % 1029,9 hPa 0,0 l/m 1,3 km/h (1 Bft) SO 127 0 min 0 W/m 4,1 C 4,4 C 3,2 km/h (1 Bft)
19.12.2016 07:06 4,4 C 98 % 1029,9 hPa 0,0 l/m 0,4 km/h (0 Bft) SO 127 0 min 0 W/m 4,1 C 4,4 C 1,6 km/h (1 Bft)
19.12.2016 07:09 4,4 C 98 % 1029,8 hPa 0,0 l/m 0,0 km/h (0 Bft) SO 127 0 min 0 W/m 4,1 C 4,4 C 1,6 km/h (1 Bft)
19.12.2016 07:12 4,4 C 98 % 1029,8 hPa 0,0 l/m 0,0 km/h (0 Bft) SO 127 0 min 0 W/m 4,1 C 4,4 C 0,0 km/h (0 Bft)
19.12.2016 07:15 4,4 C 98 % 1029,8 hPa 0,0 l/m 0,0 km/h (0 Bft) SO 127 0 min 0 W/m 4,1 C 4,4 C 0,0 km/h (0 Bft)
19.12.2016 07:18 4,4 C 98 % 1029,8 hPa 0,0 l/m 0,0 km/h (0 Bft) SO 127 0 min 0 W/m 4,1 C 4,4 C 0,0 km/h (0 Bft)
19.12.2016 07:21 4,4 C 98 % 1029,9 hPa 0,0 l/m 0,2 km/h (0 Bft) SO 127 0 min 0 W/m 4,1 C 4,4 C 1,6 km/h (1 Bft)
19.12.2016 07:24 4,4 C 98 % 1029,8 hPa 0,0 l/m 0,3 km/h (0 Bft) SO 127 0 min 0 W/m 4,1 C 4,4 C 1,6 km/h (1 Bft)
19.12.2016 07:27 4,4 C 98 % 1029,8 hPa 0,0 l/m 0,0 km/h (0 Bft) SO 127 0 min 0 W/m 4,1 C 4,4 C 0,0 km/h (0 Bft)
19.12.2016 07:30 4,4 C 98 % 1029,8 hPa 0,0 l/m 0,6 km/h (0 Bft) SO 127 0 min 0 W/m 4,1 C 4,4 C 1,6 km/h (1 Bft)
19.12.2016 07:33 4,4 C 98 % 1029,7 hPa 0,0 l/m 0,3 km/h (0 Bft) SO 127 0 min 0 W/m 4,1 C 4,4 C 1,6 km/h (1 Bft)
19.12.2016 07:36 4,4 C 98 % 1029,7 hPa 0,0 l/m 0,2 km/h (0 Bft) SO 127 0 min 0 W/m 4,1 C 4,4 C 1,6 km/h (1 Bft)
19.12.2016 07:39 4,4 C 98 % 1029,7 hPa 0,0 l/m 1,0 km/h (0 Bft) SO 127 0 min 0 W/m 4,1 C 4,4 C 3,2 km/h (1 Bft)
19.12.2016 07:42 4,4 C 98 % 1029,7 hPa 0,0 l/m 0,9 km/h (0 Bft) SO 127 0 min 0 W/m 4,1 C 4,4 C 3,2 km/h (1 Bft)
19.12.2016 07:45 4,4 C 98 % 1029,6 hPa 0,0 l/m 0,2 km/h (0 Bft) SO 127 0 min 0 W/m 4,1 C 4,4 C 1,6 km/h (1 Bft)
19.12.2016 07:48 4,4 C 98 % 1029,6 hPa 0,0 l/m 0,2 km/h (0 Bft) SO 127 0 min 0 W/m 4,1 C 4,4 C 1,6 km/h (1 Bft)
19.12.2016 07:51 4,4 C 98 % 1029,6 hPa 0,0 l/m 1,8 km/h (1 Bft) SO 127 0 min 0 W/m 4,1 C 4,4 C 3,2 km/h (1 Bft)
19.12.2016 07:54 4,5 C 98 % 1029,6 hPa 0,0 l/m 2,5 km/h (1 Bft) SO 127 0 min 0 W/m 4,2 C 4,5 C 3,2 km/h (1 Bft)
19.12.2016 07:57 4,5 C 98 % 1029,6 hPa 0,0 l/m 1,7 km/h (1 Bft) SO 127 0 min 0 W/m 4,2 C 4,5 C 3,2 km/h (1 Bft)
19.12.2016 08:00 4,5 C 98 % 1029,6 hPa 0,0 l/m 0,9 km/h (0 Bft) SO 127 0 min 0 W/m 4,2 C 4,5 C 3,2 km/h (1 Bft)
19.12.2016 08:03 4,5 C 98 % 1029,7 hPa 0,0 l/m 0,6 km/h (0 Bft) SO 127 0 min 0 W/m 4,2 C 4,5 C 1,6 km/h (1 Bft)
19.12.2016 08:06 4,5 C 98 % 1029,6 hPa 0,0 l/m 0,2 km/h (0 Bft) SO 127 0 min 0 W/m 4,2 C 4,5 C 1,6 km/h (1 Bft)
19.12.2016 08:09 4,5 C 98 % 1029,7 hPa 0,0 l/m 0,2 km/h (0 Bft) SO 127 0 min 0 W/m 4,2 C 4,5 C 1,6 km/h (1 Bft)
19.12.2016 08:12 4,5 C 98 % 1029,7 hPa 0,0 l/m 0,6 km/h (0 Bft) SO 127 0 min 0 W/m 4,2 C 4,5 C 1,6 km/h (1 Bft)
19.12.2016 08:15 4,5 C 98 % 1029,8 hPa 0,0 l/m 0,1 km/h (0 Bft) SO 127 0 min 0 W/m 4,2 C 4,5 C 1,6 km/h (1 Bft)
19.12.2016 08:18 4,5 C 98 % 1029,8 hPa 0,0 l/m 0,1 km/h (0 Bft) SO 127 0 min 0 W/m 4,2 C 4,5 C 1,6 km/h (1 Bft)
19.12.2016 08:21 4,5 C 98 % 1029,8 hPa 0,0 l/m 0,1 km/h (0 Bft) SO 127 0 min 0 W/m 4,2 C 4,5 C 1,6 km/h (1 Bft)
19.12.2016 08:24 4,5 C 98 % 1029,8 hPa 0,0 l/m 0,0 km/h (0 Bft) SO 127 0 min 0 W/m 4,2 C 4,5 C 0,0 km/h (0 Bft)
19.12.2016 08:27 4,6 C 98 % 1029,8 hPa 0,0 l/m 0,0 km/h (0 Bft) SO 127 0 min 0 W/m 4,3 C 4,6 C 0,0 km/h (0 Bft)
19.12.2016 08:30 4,6 C 98 % 1029,8 hPa 0,0 l/m 0,1 km/h (0 Bft) SO 127 0 min 0 W/m 4,3 C 4,6 C 1,6 km/h (1 Bft)
19.12.2016 08:33 4,6 C 98 % 1029,8 hPa 0,0 l/m 1,1 km/h (1 Bft) SO 127 0 min 0 W/m 4,3 C 4,6 C 3,2 km/h (1 Bft)
19.12.2016 08:36 4,6 C 98 % 1029,8 hPa 0,0 l/m 1,1 km/h (1 Bft) SO 127 0 min 0 W/m 4,3 C 4,6 C 3,2 km/h (1 Bft)
19.12.2016 08:39 4,6 C 98 % 1029,9 hPa 0,0 l/m 0,0 km/h (0 Bft) SO 127 0 min 0 W/m 4,3 C 4,6 C 0,0 km/h (0 Bft)
19.12.2016 08:42 4,6 C 98 % 1030,0 hPa 0,0 l/m 0,0 km/h (0 Bft) SO 127 0 min 0 W/m 4,3 C 4,6 C 0,0 km/h (0 Bft)
19.12.2016 08:45 4,6 C 98 % 1030,0 hPa 0,0 l/m 0,0 km/h (0 Bft) SO 127 0 min 0 W/m 4,3 C 4,6 C 0,0 km/h (0 Bft)
19.12.2016 08:48 4,6 C 98 % 1030,0 hPa 0,0 l/m 0,0 km/h (0 Bft) SO 127 0 min 0 W/m 4,3 C 4,6 C 0,0 km/h (0 Bft)
19.12.2016 08:51 4,6 C 98 % 1030,0 hPa 0,0 l/m 0,0 km/h (0 Bft) SO 127 0 min 0 W/m 4,3 C 4,6 C 0,0 km/h (0 Bft)
19.12.2016 08:54 4,6 C 98 % 1030,1 hPa 0,0 l/m 0,0 km/h (0 Bft) SO 127 0 min 0 W/m 4,3 C 4,6 C 0,0 km/h (0 Bft)
19.12.2016 08:57 4,6 C 98 % 1030,1 hPa 0,0 l/m 0,0 km/h (0 Bft) SO 127 0 min 0 W/m 4,3 C 4,6 C 0,0 km/h (0 Bft)
19.12.2016 09:00 4,7 C 98 % 1030,2 hPa 0,0 l/m 0,0 km/h (0 Bft) SO 127 0 min 5 W/m 4,4 C 4,7 C 0,0 km/h (0 Bft)
19.12.2016 09:03 4,7 C 98 % 1030,2 hPa 0,0 l/m 0,0 km/h (0 Bft) SO 127 0 min 5 W/m 4,4 C 4,7 C 0,0 km/h (0 Bft)
19.12.2016 09:06 4,7 C 98 % 1030,2 hPa 0,0 l/m 0,0 km/h (0 Bft) SO 127 0 min 7 W/m 4,4 C 4,7 C 0,0 km/h (0 Bft)
19.12.2016 09:09 4,7 C 98 % 1030,2 hPa 0,0 l/m 0,0 km/h (0 Bft) SO 127 0 min 7 W/m 4,4 C 4,7 C 0,0 km/h (0 Bft)
19.12.2016 09:12 4,7 C 98 % 1030,2 hPa 0,0 l/m 0,0 km/h (0 Bft) SO 127 0 min 9 W/m 4,4 C 4,7 C 0,0 km/h (0 Bft)
19.12.2016 09:15 4,7 C 98 % 1030,2 hPa 0,0 l/m 0,4 km/h (0 Bft) SO 127 0 min 9 W/m 4,4 C 4,7 C 3,2 km/h (1 Bft)
19.12.2016 09:18 4,7 C 98 % 1030,3 hPa 0,0 l/m 2,1 km/h (1 Bft) O-SO 121 0 min 9 W/m 4,4 C 4,7 C 4,8 km/h (1 Bft)
19.12.2016 09:21 4,7 C 98 % 1030,4 hPa 0,0 l/m 2,7 km/h (1 Bft) SO 133 0 min 9 W/m 4,4 C 4,7 C 4,8 km/h (1 Bft)
19.12.2016 09:24 4,8 C 98 % 1030,3 hPa 0,0 l/m 2,4 km/h (1 Bft) SO 134 0 min 11 W/m 4,5 C 4,8 C 3,2 km/h (1 Bft)
19.12.2016 09:27 4,8 C 98 % 1030,3 hPa 0,0 l/m 3,0 km/h (1 Bft) S-SO 151 0 min 12 W/m 4,5 C 4,8 C 6,4 km/h (2 Bft)
19.12.2016 09:30 4,8 C 98 % 1030,4 hPa 0,0 l/m 1,5 km/h (1 Bft) S-SO 150 0 min 14 W/m 4,5 C 4,8 C 3,2 km/h (1 Bft)
19.12.2016 09:33 4,8 C 98 % 1030,4 hPa 0,0 l/m 1,2 km/h (1 Bft) S-SO 150 0 min 14 W/m 4,5 C 4,8 C 3,2 km/h (1 Bft)
19.12.2016 09:36 4,8 C 98 % 1030,4 hPa 0,0 l/m 0,7 km/h (0 Bft) S-SO 150 0 min 16 W/m 4,5 C 4,8 C 3,2 km/h (1 Bft)
19.12.2016 09:39 4,8 C 98 % 1030,4 hPa 0,0 l/m 0,1 km/h (0 Bft) S-SO 150 0 min 16 W/m 4,5 C 4,8 C 1,6 km/h (1 Bft)
19.12.2016 09:42 4,9 C 98 % 1030,3 hPa 0,0 l/m 0,0 km/h (0 Bft) S-SO 150 0 min 19 W/m 4,6 C 4,9 C 1,6 km/h (1 Bft)
19.12.2016 09:45 4,9 C 98 % 1030,3 hPa 0,0 l/m 0,0 km/h (0 Bft) S-SO 150 0 min 19 W/m 4,6 C 4,9 C 0,0 km/h (0 Bft)
19.12.2016 09:48 4,9 C 98 % 1030,3 hPa 0,0 l/m 0,0 km/h (0 Bft) S-SO 150 0 min 21 W/m 4,6 C 4,9 C 0,0 km/h (0 Bft)
19.12.2016 09:51 4,9 C 98 % 1030,2 hPa 0,0 l/m 0,0 km/h (0 Bft) S-SO 150 0 min 23 W/m 4,6 C 4,9 C 0,0 km/h (0 Bft)
19.12.2016 09:54 4,9 C 98 % 1030,2 hPa 0,0 l/m 0,1 km/h (0 Bft) S-SO 150 0 min 25 W/m 4,6 C 4,9 C 1,6 km/h (1 Bft)
19.12.2016 09:57 4,9 C 98 % 1030,2 hPa 0,0 l/m 0,8 km/h (0 Bft) S-SO 150 0 min 25 W/m 4,6 C 4,9 C 3,2 km/h (1 Bft)
19.12.2016 10:00 5,0 C 98 % 1030,3 hPa 0,0 l/m 1,1 km/h (1 Bft) S-SO 150 0 min 28 W/m 4,7 C 5,0 C 3,2 km/h (1 Bft)
19.12.2016 10:03 5,1 C 98 % 1030,3 hPa 0,0 l/m 0,4 km/h (0 Bft) S-SO 150 0 min 28 W/m 4,8 C 5,1 C 3,2 km/h (1 Bft)
19.12.2016 10:06 5,1 C 98 % 1030,3 hPa 0,0 l/m 1,2 km/h (1 Bft) S-SO 150 0 min 28 W/m 4,8 C 5,1 C 3,2 km/h (1 Bft)
19.12.2016 10:09 5,1 C 98 % 1030,3 hPa 0,0 l/m 0,8 km/h (0 Bft) S-SO 150 0 min 30 W/m 4,8 C 5,1 C 1,6 km/h (1 Bft)
19.12.2016 10:12 5,1 C 98 % 1030,3 hPa 0,0 l/m 1,3 km/h (1 Bft) S-SO 150 0 min 30 W/m 4,8 C 5,1 C 3,2 km/h (1 Bft)
19.12.2016 10:15 5,1 C 98 % 1030,3 hPa 0,0 l/m 1,9 km/h (1 Bft) S-SO 150 0 min 30 W/m 4,8 C 5,1 C 3,2 km/h (1 Bft)
19.12.2016 10:18 5,2 C 98 % 1030,4 hPa 0,0 l/m 2,0 km/h (1 Bft) S-SO 150 0 min 32 W/m 4,9 C 5,2 C 3,2 km/h (1 Bft)
19.12.2016 10:21 5,2 C 98 % 1030,4 hPa 0,0 l/m 1,2 km/h (1 Bft) S-SO 150 0 min 32 W/m 4,9 C 5,2 C 3,2 km/h (1 Bft)
19.12.2016 10:24 5,2 C 98 % 1030,5 hPa 0,0 l/m 1,7 km/h (1 Bft) S-SO 149 0 min 33 W/m 4,9 C 5,2 C 3,2 km/h (1 Bft)
19.12.2016 10:27 5,2 C 98 % 1030,5 hPa 0,0 l/m 1,5 km/h (1 Bft) S-SO 149 0 min 35 W/m 4,9 C 5,2 C 3,2 km/h (1 Bft)
19.12.2016 10:30 5,3 C 98 % 1030,5 hPa 0,0 l/m 1,7 km/h (1 Bft) SO 142 0 min 35 W/m 5,0 C 5,3 C 4,8 km/h (1 Bft)
19.12.2016 10:33 5,3 C 98 % 1030,4 hPa 0,0 l/m 2,7 km/h (1 Bft) SO 142 0 min 37 W/m 5,0 C 5,3 C 4,8 km/h (1 Bft)
19.12.2016 10:36 5,3 C 98 % 1030,4 hPa 0,0 l/m 2,7 km/h (1 Bft) SO 142 0 min 42 W/m 5,0 C 5,3 C 4,8 km/h (1 Bft)
19.12.2016 10:39 5,4 C 98 % 1030,4 hPa 0,0 l/m 1,9 km/h (1 Bft) SO 142 0 min 44 W/m 5,1 C 5,4 C 3,2 km/h (1 Bft)
19.12.2016 10:42 5,6 C 98 % 1030,4 hPa 0,0 l/m 0,1 km/h (0 Bft) SO 142 0 min 46 W/m 5,3 C 5,6 C 1,6 km/h (1 Bft)
19.12.2016 10:45 5,8 C 98 % 1030,4 hPa 0,0 l/m 0,0 km/h (0 Bft) SO 142 0 min 44 W/m 5,5 C 5,8 C 0,0 km/h (0 Bft)
19.12.2016 10:48 6,0 C 98 % 1030,4 hPa 0,0 l/m 0,0 km/h (0 Bft) SO 142 0 min 44 W/m 5,7 C 6,0 C 0,0 km/h (0 Bft)
19.12.2016 10:51 6,1 C 98 % 1030,4 hPa 0,0 l/m 0,2 km/h (0 Bft) SO 142 0 min 44 W/m 5,8 C 6,1 C 4,8 km/h (1 Bft)
19.12.2016 10:54 6,2 C 98 % 1030,4 hPa 0,0 l/m 2,3 km/h (1 Bft) SO 136 0 min 46 W/m 5,9 C 6,2 C 4,8 km/h (1 Bft)
19.12.2016 10:57 6,1 C 98 % 1030,4 hPa 0,0 l/m 1,0 km/h (0 Bft) SO 136 0 min 47 W/m 5,8 C 6,1 C 3,2 km/h (1 Bft)
19.12.2016 11:00 6,1 C 98 % 1030,4 hPa 0,0 l/m 1,3 km/h (1 Bft) SO 133 0 min 46 W/m 5,8 C 6,1 C 4,8 km/h (1 Bft)
19.12.2016 11:03 6,1 C 98 % 1030,4 hPa 0,0 l/m 1,8 km/h (1 Bft) SO 132 0 min 46 W/m 5,8 C 6,1 C 3,2 km/h (1 Bft)
19.12.2016 11:06 6,1 C 98 % 1030,4 hPa 0,0 l/m 1,5 km/h (1 Bft) SO 132 0 min 47 W/m 5,8 C 6,1 C 3,2 km/h (1 Bft)
19.12.2016 11:09 6,1 C 98 % 1030,4 hPa 0,0 l/m 1,9 km/h (1 Bft) SO 133 0 min 46 W/m 5,8 C 6,1 C 3,2 km/h (1 Bft)
19.12.2016 11:12 6,2 C 98 % 1030,4 hPa 0,0 l/m 3,8 km/h (1 Bft) O-SO 122 0 min 47 W/m 5,9 C 6,2 C 6,4 km/h (2 Bft)
19.12.2016 11:15 6,1 C 98 % 1030,4 hPa 0,0 l/m 1,6 km/h (1 Bft) O-SO 123 0 min 47 W/m 5,8 C 6,1 C 4,8 km/h (1 Bft)
19.12.2016 11:18 6,2 C 98 % 1030,4 hPa 0,0 l/m 1,9 km/h (1 Bft) O-SO 122 0 min 47 W/m 5,9 C 6,2 C 3,2 km/h (1 Bft)
19.12.2016 11:21 6,2 C 98 % 1030,3 hPa 0,0 l/m 1,0 km/h (0 Bft) O-SO 122 0 min 49 W/m 5,9 C 6,2 C 3,2 km/h (1 Bft)
19.12.2016 11:24 6,2 C 98 % 1030,4 hPa 0,0 l/m 2,0 km/h (1 Bft) O-SO 123 0 min 47 W/m 5,9 C 6,2 C 4,8 km/h (1 Bft)
19.12.2016 11:27 6,2 C 98 % 1030,3 hPa 0,0 l/m 2,4 km/h (1 Bft) SO 124 0 min 47 W/m 5,9 C 6,2 C 4,8 km/h (1 Bft)
19.12.2016 11:30 6,2 C 98 % 1030,2 hPa 0,0 l/m 2,0 km/h (1 Bft) O-SO 123 0 min 47 W/m 5,9 C 6,2 C 3,2 km/h (1 Bft)
19.12.2016 11:33 6,2 C 98 % 1030,1 hPa 0,0 l/m 1,1 km/h (1 Bft) O-SO 123 0 min 49 W/m 5,9 C 6,2 C 3,2 km/h (1 Bft)
19.12.2016 11:36 6,3 C 98 % 1030,1 hPa 0,0 l/m 0,7 km/h (0 Bft) O-SO 123 0 min 49 W/m 6,0 C 6,3 C 4,8 km/h (1 Bft)
19.12.2016 11:39 6,3 C 98 % 1030,0 hPa 0,0 l/m 1,0 km/h (0 Bft) O-SO 123 0 min 53 W/m 6,0 C 6,3 C 3,2 km/h (1 Bft)
19.12.2016 11:42 6,4 C 98 % 1029,9 hPa 0,0 l/m 1,8 km/h (1 Bft) O-SO 122 0 min 53 W/m 6,1 C 6,4 C 4,8 km/h (1 Bft)
19.12.2016 11:45 6,4 C 98 % 1029,9 hPa 0,0 l/m 1,0 km/h (0 Bft) O-SO 122 0 min 54 W/m 6,1 C 6,4 C 3,2 km/h (1 Bft)
19.12.2016 11:48 6,4 C 97 % 1029,8 hPa 0,0 l/m 1,4 km/h (1 Bft) SO 131 0 min 54 W/m 6,0 C 6,4 C 4,8 km/h (1 Bft)
19.12.2016 11:51 6,4 C 97 % 1029,9 hPa 0,0 l/m 0,6 km/h (0 Bft) SO 131 0 min 58 W/m 6,0 C 6,4 C 3,2 km/h (1 Bft)
19.12.2016 11:54 6,4 C 97 % 1029,8 hPa 0,0 l/m 1,8 km/h (1 Bft) SO 131 0 min 58 W/m 6,0 C 6,4 C 3,2 km/h (1 Bft)
19.12.2016 11:57 6,4 C 97 % 1029,8 hPa 0,0 l/m 1,5 km/h (1 Bft) SO 131 0 min 60 W/m 6,0 C 6,4 C 3,2 km/h (1 Bft)
19.12.2016 12:00 6,4 C 97 % 1029,7 hPa 0,0 l/m 2,3 km/h (1 Bft) SO 130 0 min 54 W/m 6,0 C 6,4 C 4,8 km/h (1 Bft)
19.12.2016 12:03 6,5 C 97 % 1029,6 hPa 0,0 l/m 1,6 km/h (1 Bft) S-SO 157 0 min 51 W/m 6,1 C 6,5 C 3,2 km/h (1 Bft)
19.12.2016 12:06 6,5 C 97 % 1029,6 hPa 0,0 l/m 2,0 km/h (1 Bft) S-SO 157 0 min 51 W/m 6,1 C 6,5 C 3,2 km/h (1 Bft)
19.12.2016 12:09 6,6 C 97 % 1029,5 hPa 0,0 l/m 0,1 km/h (0 Bft) S-SO 157 0 min 40 W/m 6,2 C 6,6 C 1,6 km/h (1 Bft)
19.12.2016 12:12 6,6 C 97 % 1029,4 hPa 0,0 l/m 0,0 km/h (0 Bft) S-SO 157 0 min 42 W/m 6,2 C 6,6 C 0,0 km/h (0 Bft)
19.12.2016 12:15 6,6 C 97 % 1029,4 hPa 0,0 l/m 0,0 km/h (0 Bft) S-SO 157 0 min 51 W/m 6,2 C 6,6 C 0,0 km/h (0 Bft)
19.12.2016 12:18 6,6 C 97 % 1029,4 hPa 0,0 l/m 0,0 km/h (0 Bft) S-SO 157 0 min 67 W/m 6,2 C 6,6 C 0,0 km/h (0 Bft)
19.12.2016 12:21 6,7 C 97 % 1029,4 hPa 0,0 l/m 0,0 km/h (0 Bft) S-SO 157 0 min 69 W/m 6,3 C 6,7 C 0,0 km/h (0 Bft)
19.12.2016 12:24 6,7 C 97 % 1029,4 hPa 0,0 l/m 0,0 km/h (0 Bft) S-SO 157 0 min 65 W/m 6,3 C 6,7 C 0,0 km/h (0 Bft)
19.12.2016 12:27 6,8 C 97 % 1029,5 hPa 0,0 l/m 0,0 km/h (0 Bft) S-SO 157 0 min 65 W/m 6,4 C 6,8 C 0,0 km/h (0 Bft)
19.12.2016 12:30 6,8 C 96 % 1029,5 hPa 0,0 l/m 0,0 km/h (0 Bft) SO 128 0 min 65 W/m 6,2 C 6,8 C 0,0 km/h (0 Bft)
19.12.2016 12:33 6,9 C 96 % 1029,4 hPa 0,0 l/m 0,0 km/h (0 Bft) SO 128 0 min 65 W/m 6,3 C 6,9 C 0,0 km/h (0 Bft)
19.12.2016 12:36 7,0 C 96 % 1029,4 hPa 0,0 l/m 0,0 km/h (0 Bft) SO 128 0 min 65 W/m 6,4 C 7,0 C 0,0 km/h (0 Bft)
19.12.2016 12:39 6,9 C 96 % 1029,4 hPa 0,0 l/m 1,2 km/h (1 Bft) O 88 0 min 65 W/m 6,3 C 6,9 C 4,8 km/h (1 Bft)
19.12.2016 12:42 6,9 C 96 % 1029,3 hPa 0,0 l/m 2,2 km/h (1 Bft) O 93 0 min 65 W/m 6,3 C 6,9 C 4,8 km/h (1 Bft)
19.12.2016 12:45 6,9 C 96 % 1029,2 hPa 0,0 l/m 2,0 km/h (1 Bft) O-SO 104 0 min 65 W/m 6,3 C 6,9 C 4,8 km/h (1 Bft)
19.12.2016 12:48 6,9 C 96 % 1029,3 hPa 0,0 l/m 1,4 km/h (1 Bft) O-SO 104 0 min 58 W/m 6,3 C 6,9 C 3,2 km/h (1 Bft)
19.12.2016 12:51 7,0 C 96 % 1029,3 hPa 0,0 l/m 2,3 km/h (1 Bft) O-SO 115 0 min 53 W/m 6,4 C 7,0 C 6,4 km/h (2 Bft)
19.12.2016 12:54 6,8 C 96 % 1029,3 hPa 0,0 l/m 3,1 km/h (1 Bft) SO 127 0 min 53 W/m 6,2 C 6,8 C 6,4 km/h (2 Bft)
19.12.2016 12:57 6,7 C 96 % 1029,3 hPa 0,0 l/m 2,9 km/h (1 Bft) O 90 0 min 51 W/m 6,1 C 6,7 C 4,8 km/h (1 Bft)
19.12.2016 13:00 6,8 C 95 % 1029,3 hPa 0,0 l/m 1,8 km/h (1 Bft) SO 128 0 min 49 W/m 6,1 C 6,8 C 6,4 km/h (2 Bft)
19.12.2016 13:03 6,8 C 96 % 1029,3 hPa 0,0 l/m 1,9 km/h (1 Bft) O-SO 119 0 min 47 W/m 6,2 C 6,8 C 6,4 km/h (2 Bft)
19.12.2016 13:06 6,8 C 96 % 1029,3 hPa 0,0 l/m 2,1 km/h (1 Bft) SO 133 0 min 46 W/m 6,2 C 6,8 C 4,8 km/h (1 Bft)
19.12.2016 13:09 6,8 C 95 % 1029,3 hPa 0,0 l/m 3,1 km/h (1 Bft) S-SO 153 0 min 44 W/m 6,1 C 6,8 C 6,4 km/h (2 Bft)
19.12.2016 13:12 6,7 C 95 % 1029,4 hPa 0,0 l/m 4,5 km/h (1 Bft) S-SO 157 0 min 42 W/m 6,0 C 6,7 C 8,0 km/h (2 Bft)
19.12.2016 13:15 6,7 C 95 % 1029,4 hPa 0,0 l/m 2,2 km/h (1 Bft) SO 126 0 min 42 W/m 6,0 C 6,7 C 6,4 km/h (2 Bft)
19.12.2016 13:18 6,7 C 95 % 1029,4 hPa 0,0 l/m 4,3 km/h (1 Bft) SO 137 0 min 42 W/m 6,0 C 6,7 C 9,7 km/h (2 Bft)
19.12.2016 13:21 6,7 C 95 % 1029,4 hPa 0,0 l/m 3,2 km/h (1 Bft) SO 143 0 min 40 W/m 6,0 C 6,7 C 6,4 km/h (2 Bft)
19.12.2016 13:24 6,6 C 95 % 1029,3 hPa 0,0 l/m 1,0 km/h (0 Bft) SO 142 0 min 42 W/m 5,9 C 6,6 C 4,8 km/h (1 Bft)
19.12.2016 13:27 6,7 C 95 % 1029,3 hPa 0,0 l/m 1,3 km/h (1 Bft) SO 146 0 min 40 W/m 6,0 C 6,7 C 4,8 km/h (1 Bft)
19.12.2016 13:30 6,7 C 95 % 1029,3 hPa 0,0 l/m 1,0 km/h (0 Bft) SO 146 0 min 40 W/m 6,0 C 6,7 C 3,2 km/h (1 Bft)
19.12.2016 13:33 6,6 C 95 % 1029,2 hPa 0,0 l/m 0,4 km/h (0 Bft) SO 146 0 min 42 W/m 5,9 C 6,6 C 1,6 km/h (1 Bft)
19.12.2016 13:36 6,6 C 95 % 1029,1 hPa 0,0 l/m 3,2 km/h (1 Bft) S-SO 166 0 min 40 W/m 5,9 C 6,6 C 8,0 km/h (2 Bft)
19.12.2016 13:39 6,6 C 95 % 1029,2 hPa 0,0 l/m 3,4 km/h (1 Bft) S-SO 166 0 min 37 W/m 5,9 C 6,6 C 6,4 km/h (2 Bft)
19.12.2016 13:42 6,7 C 95 % 1029,2 hPa 0,0 l/m 2,0 km/h (1 Bft) S-SO 150 0 min 39 W/m 6,0 C 6,7 C 4,8 km/h (1 Bft)
19.12.2016 13:45 6,7 C 95 % 1029,2 hPa 0,0 l/m 1,3 km/h (1 Bft) S-SO 150 0 min 33 W/m 6,0 C 6,7 C 3,2 km/h (1 Bft)
19.12.2016 13:48 6,8 C 95 % 1029,3 hPa 0,0 l/m 1,8 km/h (1 Bft) S-SO 150 0 min 32 W/m 6,1 C 6,8 C 3,2 km/h (1 Bft)
19.12.2016 13:51 6,7 C 95 % 1029,3 hPa 0,0 l/m 1,9 km/h (1 Bft) S-SO 150 0 min 33 W/m 6,0 C 6,7 C 3,2 km/h (1 Bft)
19.12.2016 13:54 6,7 C 95 % 1029,3 hPa 0,0 l/m 2,5 km/h (1 Bft) O-SO 118 0 min 33 W/m 6,0 C 6,7 C 6,4 km/h (2 Bft)
19.12.2016 13:57 6,6 C 94 % 1029,2 hPa 0,0 l/m 3,1 km/h (1 Bft) SO 142 0 min 33 W/m 5,7 C 6,6 C 6,4 km/h (2 Bft)
19.12.2016 14:00 6,6 C 94 % 1029,3 hPa 0,0 l/m 3,4 km/h (1 Bft) SO 143 0 min 32 W/m 5,7 C 6,6 C 8,0 km/h (2 Bft)
19.12.2016 14:03 6,6 C 94 % 1029,3 hPa 0,0 l/m 1,4 km/h (1 Bft) SO 130 0 min 30 W/m 5,7 C 6,6 C 4,8 km/h (1 Bft)
19.12.2016 14:06 6,6 C 94 % 1029,3 hPa 0,0 l/m 2,7 km/h (1 Bft) SO 130 0 min 28 W/m 5,7 C 6,6 C 6,4 km/h (2 Bft)
19.12.2016 14:09 6,6 C 94 % 1029,2 hPa 0,0 l/m 2,9 km/h (1 Bft) SO 134 0 min 26 W/m 5,7 C 6,6 C 4,8 km/h (1 Bft)
19.12.2016 14:12 6,6 C 94 % 1029,2 hPa 0,0 l/m 2,1 km/h (1 Bft) SO 134 0 min 25 W/m 5,7 C 6,6 C 4,8 km/h (1 Bft)
19.12.2016 14:15 6,6 C 94 % 1029,2 hPa 0,0 l/m 1,6 km/h (1 Bft) SO 134 0 min 23 W/m 5,7 C 6,6 C 3,2 km/h (1 Bft)
19.12.2016 14:18 6,6 C 94 % 1029,2 hPa 0,0 l/m 1,7 km/h (1 Bft) SO 134 0 min 25 W/m 5,7 C 6,6 C 4,8 km/h (1 Bft)
19.12.2016 14:21 6,6 C 94 % 1029,1 hPa 0,0 l/m 1,4 km/h (1 Bft) SO 134 0 min 23 W/m 5,7 C 6,6 C 3,2 km/h (1 Bft)
19.12.2016 14:24 6,6 C 94 % 1029,1 hPa 0,0 l/m 1,6 km/h (1 Bft) SO 132 0 min 23 W/m 5,7 C 6,6 C 4,8 km/h (1 Bft)
19.12.2016 14:27 6,6 C 94 % 1029,0 hPa 0,0 l/m 2,2 km/h (1 Bft) SO 132 0 min 23 W/m 5,7 C 6,6 C 4,8 km/h (1 Bft)
19.12.2016 14:30 6,6 C 94 % 1029,0 hPa 0,0 l/m 1,5 km/h (1 Bft) SO 132 0 min 21 W/m 5,7 C 6,6 C 4,8 km/h (1 Bft)
19.12.2016 14:33 6,6 C 94 % 1029,1 hPa 0,0 l/m 0,2 km/h (0 Bft) SO 132 0 min 21 W/m 5,7 C 6,6 C 1,6 km/h (1 Bft)
19.12.2016 14:36 6,6 C 94 % 1029,0 hPa 0,0 l/m 1,6 km/h (1 Bft) SO 132 0 min 19 W/m 5,7 C 6,6 C 3,2 km/h (1 Bft)
19.12.2016 14:39 6,6 C 94 % 1029,1 hPa 0,0 l/m 1,3 km/h (1 Bft) SO 131 0 min 12 W/m 5,7 C 6,6 C 4,8 km/h (1 Bft)
19.12.2016 14:42 6,6 C 94 % 1029,0 hPa 0,0 l/m 0,1 km/h (0 Bft) SO 131 0 min 7 W/m 5,7 C 6,6 C 1,6 km/h (1 Bft)
19.12.2016 14:45 6,6 C 94 % 1029,0 hPa 0,0 l/m 1,5 km/h (1 Bft) SO 132 0 min 7 W/m 5,7 C 6,6 C 4,8 km/h (1 Bft)
19.12.2016 14:48 6,6 C 94 % 1029,0 hPa 0,0 l/m 2,6 km/h (1 Bft) SO 134 0 min 11 W/m 5,7 C 6,6 C 6,4 km/h (2 Bft)
19.12.2016 14:51 6,6 C 94 % 1029,1 hPa 0,0 l/m 2,1 km/h (1 Bft) SO 140 0 min 12 W/m 5,7 C 6,6 C 3,2 km/h (1 Bft)
19.12.2016 14:54 6,6 C 94 % 1029,0 hPa 0,0 l/m 2,4 km/h (1 Bft) SO 140 0 min 14 W/m 5,7 C 6,6 C 4,8 km/h (1 Bft)
19.12.2016 14:57 6,6 C 94 % 1029,0 hPa 0,0 l/m 2,7 km/h (1 Bft) SO 143 0 min 16 W/m 5,7 C 6,6 C 4,8 km/h (1 Bft)
19.12.2016 15:00 6,5 C 94 % 1028,9 hPa 0,0 l/m 2,0 km/h (1 Bft) SO 144 0 min 14 W/m 5,6 C 6,5 C 4,8 km/h (1 Bft)
19.12.2016 15:03 6,5 C 94 % 1028,9 hPa 0,0 l/m 2,0 km/h (1 Bft) SO 144 0 min 12 W/m 5,6 C 6,5 C 3,2 km/h (1 Bft)
19.12.2016 15:06 6,5 C 94 % 1028,9 hPa 0,0 l/m 3,1 km/h (1 Bft) SO 133 0 min 9 W/m 5,6 C 6,5 C 6,4 km/h (2 Bft)
19.12.2016 15:09 6,4 C 94 % 1029,0 hPa 0,0 l/m 4,9 km/h (1 Bft) SO 134 0 min 9 W/m 5,5 C 6,4 C 11,3 km/h (2 Bft)
19.12.2016 15:12 6,4 C 94 % 1029,0 hPa 0,0 l/m 3,3 km/h (1 Bft) O-SO 108 0 min 7 W/m 5,5 C 6,4 C 8,0 km/h (2 Bft)
19.12.2016 15:15 6,4 C 94 % 1029,0 hPa 0,0 l/m 1,6 km/h (1 Bft) O-SO 108 0 min 5 W/m 5,5 C 6,4 C 3,2 km/h (1 Bft)
19.12.2016 15:18 6,3 C 94 % 1029,0 hPa 0,0 l/m 1,7 km/h (1 Bft) O-SO 103 0 min 0 W/m 5,4 C 6,3 C 3,2 km/h (1 Bft)
19.12.2016 15:21 6,3 C 94 % 1029,0 hPa 0,0 l/m 2,9 km/h (1 Bft) S-SO 155 0 min 0 W/m 5,4 C 6,3 C 6,4 km/h (2 Bft)
19.12.2016 15:24 6,3 C 94 % 1029,0 hPa 0,0 l/m 2,9 km/h (1 Bft) S-SO 165 0 min 0 W/m 5,4 C 6,3 C 6,4 km/h (2 Bft)
19.12.2016 15:27 6,3 C 94 % 1028,9 hPa 0,0 l/m 3,4 km/h (1 Bft) SO 144 0 min 0 W/m 5,4 C 6,3 C 8,0 km/h (2 Bft)
19.12.2016 15:30 6,3 C 94 % 1028,9 hPa 0,0 l/m 3,7 km/h (1 Bft) SO 131 0 min 5 W/m 5,4 C 6,3 C 8,0 km/h (2 Bft)
19.12.2016 15:33 6,2 C 93 % 1028,9 hPa 0,0 l/m 2,9 km/h (1 Bft) SO 140 0 min 5 W/m 5,2 C 6,2 C 6,4 km/h (2 Bft)
19.12.2016 15:36 6,2 C 93 % 1028,9 hPa 0,0 l/m 2,4 km/h (1 Bft) NO 54 0 min 5 W/m 5,2 C 6,2 C 6,4 km/h (2 Bft)
19.12.2016 15:39 6,2 C 93 % 1028,9 hPa 0,0 l/m 2,8 km/h (1 Bft) SO 134 0 min 5 W/m 5,2 C 6,2 C 6,4 km/h (2 Bft)
19.12.2016 15:42 6,2 C 93 % 1028,9 hPa 0,0 l/m 2,8 km/h (1 Bft) O-SO 108 0 min 0 W/m 5,2 C 6,2 C 9,7 km/h (2 Bft)
19.12.2016 15:45 6,1 C 93 % 1028,9 hPa 0,0 l/m 3,5 km/h (1 Bft) O-NO 61 0 min 5 W/m 5,1 C 6,1 C 9,7 km/h (2 Bft)
19.12.2016 15:48 6,1 C 93 % 1028,9 hPa 0,0 l/m 3,2 km/h (1 Bft) O-SO 103 0 min 0 W/m 5,1 C 6,1 C 6,4 km/h (2 Bft)
19.12.2016 15:51 6,1 C 93 % 1028,9 hPa 0,0 l/m 2,2 km/h (1 Bft) O-SO 111 0 min 0 W/m 5,1 C 6,1 C 4,8 km/h (1 Bft)
19.12.2016 15:54 6,0 C 93 % 1028,9 hPa 0,0 l/m 0,8 km/h (0 Bft) O-SO 111 0 min 0 W/m 5,0 C 6,0 C 3,2 km/h (1 Bft)
19.12.2016 15:57 6,0 C 93 % 1028,9 hPa 0,0 l/m 1,0 km/h (0 Bft) O-SO 111 0 min 0 W/m 5,0 C 6,0 C 3,2 km/h (1 Bft)
19.12.2016 16:00 6,0 C 93 % 1028,9 hPa 0,0 l/m 1,2 km/h (1 Bft) O-SO 111 0 min 0 W/m 5,0 C 6,0 C 4,8 km/h (1 Bft)
19.12.2016 16:03 6,0 C 93 % 1028,8 hPa 0,0 l/m 0,5 km/h (0 Bft) O-SO 111 0 min 0 W/m 5,0 C 6,0 C 3,2 km/h (1 Bft)
19.12.2016 16:06 6,0 C 92 % 1028,8 hPa 0,0 l/m 1,1 km/h (1 Bft) O-SO 111 0 min 0 W/m 4,8 C 6,0 C 3,2 km/h (1 Bft)
19.12.2016 16:09 6,0 C 92 % 1028,7 hPa 0,0 l/m 0,1 km/h (0 Bft) O-SO 111 0 min 0 W/m 4,8 C 6,0 C 1,6 km/h (1 Bft)
19.12.2016 16:12 5,9 C 92 % 1028,7 hPa 0,0 l/m 0,5 km/h (0 Bft) O-SO 111 0 min 0 W/m 4,7 C 5,9 C 3,2 km/h (1 Bft)
19.12.2016 16:15 5,9 C 92 % 1028,7 hPa 0,0 l/m 1,9 km/h (1 Bft) O-SO 111 0 min 0 W/m 4,7 C 5,9 C 3,2 km/h (1 Bft)
19.12.2016 16:18 5,9 C 92 % 1028,6 hPa 0,0 l/m 1,4 km/h (1 Bft) O-SO 111 0 min 0 W/m 4,7 C 5,9 C 4,8 km/h (1 Bft)
19.12.2016 16:21 5,9 C 92 % 1028,6 hPa 0,0 l/m 1,1 km/h (1 Bft) O-SO 111 0 min 0 W/m 4,7 C 5,9 C 3,2 km/h (1 Bft)
19.12.2016 16:24 5,9 C 92 % 1028,7 hPa 0,0 l/m 1,2 km/h (1 Bft) O-SO 111 0 min 0 W/m 4,7 C 5,9 C 3,2 km/h (1 Bft)
19.12.2016 16:27 5,9 C 92 % 1028,8 hPa 0,0 l/m 2,4 km/h (1 Bft) O 88 0 min 0 W/m 4,7 C 5,9 C 4,8 km/h (1 Bft)
19.12.2016 16:30 5,9 C 92 % 1028,7 hPa 0,0 l/m 0,5 km/h (0 Bft) O 88 0 min 0 W/m 4,7 C 5,9 C 1,6 km/h (1 Bft)
19.12.2016 16:33 5,8 C 92 % 1028,7 hPa 0,0 l/m 0,7 km/h (0 Bft) O 88 0 min 0 W/m 4,6 C 5,8 C 1,6 km/h (1 Bft)
19.12.2016 16:36 5,8 C 92 % 1028,6 hPa 0,0 l/m 2,2 km/h (1 Bft) SO 144 0 min 0 W/m 4,6 C 5,8 C 4,8 km/h (1 Bft)
19.12.2016 16:39 5,8 C 92 % 1028,5 hPa 0,0 l/m 0,2 km/h (0 Bft) SO 144 0 min 0 W/m 4,6 C 5,8 C 1,6 km/h (1 Bft)
19.12.2016 16:42 5,8 C 92 % 1028,5 hPa 0,0 l/m 0,0 km/h (0 Bft) SO 144 0 min 0 W/m 4,6 C 5,8 C 0,0 km/h (0 Bft)
19.12.2016 16:45 5,8 C 92 % 1028,5 hPa 0,0 l/m 0,1 km/h (0 Bft) SO 144 0 min 0 W/m 4,6 C 5,8 C 1,6 km/h (1 Bft)
19.12.2016 16:48 5,8 C 92 % 1028,4 hPa 0,0 l/m 0,0 km/h (0 Bft) SO 144 0 min 0 W/m 4,6 C 5,8 C 0,0 km/h (0 Bft)
19.12.2016 16:51 5,8 C 92 % 1028,4 hPa 0,0 l/m 0,4 km/h (0 Bft) SO 144 0 min 0 W/m 4,6 C 5,8 C 1,6 km/h (1 Bft)
19.12.2016 16:54 5,8 C 92 % 1028,4 hPa 0,0 l/m 1,0 km/h (0 Bft) SO 144 0 min 0 W/m 4,6 C 5,8 C 3,2 km/h (1 Bft)
19.12.2016 16:57 5,8 C 92 % 1028,4 hPa 0,0 l/m 0,9 km/h (0 Bft) SO 144 0 min 0 W/m 4,6 C 5,8 C 3,2 km/h (1 Bft)
19.12.2016 17:00 5,7 C 92 % 1028,5 hPa 0,0 l/m 1,7 km/h (1 Bft) SO 127 0 min 0 W/m 4,5 C 5,7 C 4,8 km/h (1 Bft)
19.12.2016 17:03 5,7 C 92 % 1028,5 hPa 0,0 l/m 1,4 km/h (1 Bft) SO 127 0 min 0 W/m 4,5 C 5,7 C 3,2 km/h (1 Bft)
19.12.2016 17:06 5,7 C 92 % 1028,6 hPa 0,0 l/m 0,9 km/h (0 Bft) SO 127 0 min 0 W/m 4,5 C 5,7 C 3,2 km/h (1 Bft)
19.12.2016 17:09 5,7 C 92 % 1028,6 hPa 0,0 l/m 0,3 km/h (0 Bft) SO 127 0 min 0 W/m 4,5 C 5,7 C 1,6 km/h (1 Bft)
19.12.2016 17:12 5,6 C 92 % 1028,6 hPa 0,0 l/m 1,4 km/h (1 Bft) O 96 0 min 0 W/m 4,4 C 5,6 C 4,8 km/h (1 Bft)
19.12.2016 17:15 5,6 C 92 % 1028,6 hPa 0,0 l/m 0,6 km/h (0 Bft) O 96 0 min 0 W/m 4,4 C 5,6 C 3,2 km/h (1 Bft)
19.12.2016 17:18 5,6 C 92 % 1028,6 hPa 0,0 l/m 2,0 km/h (1 Bft) NO 48 0 min 0 W/m 4,4 C 5,6 C 9,7 km/h (2 Bft)
19.12.2016 17:21 5,6 C 92 % 1028,6 hPa 0,0 l/m 0,8 km/h (0 Bft) NO 51 0 min 0 W/m 4,4 C 5,6 C 3,2 km/h (1 Bft)
19.12.2016 17:24 5,6 C 92 % 1028,5 hPa 0,0 l/m 1,6 km/h (1 Bft) NO 51 0 min 0 W/m 4,4 C 5,6 C 4,8 km/h (1 Bft)
19.12.2016 17:27 5,6 C 92 % 1028,6 hPa 0,0 l/m 0,9 km/h (0 Bft) NO 51 0 min 0 W/m 4,4 C 5,6 C 1,6 km/h (1 Bft)
19.12.2016 17:30 5,6 C 92 % 1028,6 hPa 0,0 l/m 1,0 km/h (0 Bft) NO 51 0 min 0 W/m 4,4 C 5,6 C 3,2 km/h (1 Bft)
19.12.2016 17:33 5,6 C 92 % 1028,6 hPa 0,0 l/m 0,2 km/h (0 Bft) NO 51 0 min 0 W/m 4,4 C 5,6 C 1,6 km/h (1 Bft)
19.12.2016 17:36 5,6 C 92 % 1028,6 hPa 0,0 l/m 0,4 km/h (0 Bft) NO 51 0 min 0 W/m 4,4 C 5,6 C 3,2 km/h (1 Bft)
19.12.2016 17:39 5,6 C 92 % 1028,6 hPa 0,0 l/m 2,5 km/h (1 Bft) O 100 0 min 0 W/m 4,4 C 5,6 C 4,8 km/h (1 Bft)
19.12.2016 17:42 5,6 C 92 % 1028,6 hPa 0,0 l/m 2,8 km/h (1 Bft) SO 140 0 min 0 W/m 4,4 C 5,6 C 6,4 km/h (2 Bft)
19.12.2016 17:45 5,6 C 92 % 1028,5 hPa 0,0 l/m 1,7 km/h (1 Bft) SO 140 0 min 0 W/m 4,4 C 5,6 C 4,8 km/h (1 Bft)
19.12.2016 17:48 5,5 C 92 % 1028,6 hPa 0,0 l/m 1,1 km/h (1 Bft) SO 140 0 min 0 W/m 4,3 C 5,5 C 3,2 km/h (1 Bft)
19.12.2016 17:51 5,5 C 92 % 1028,6 hPa 0,0 l/m 0,0 km/h (0 Bft) SO 140 0 min 0 W/m 4,3 C 5,5 C 0,0 km/h (0 Bft)
19.12.2016 17:54 5,5 C 92 % 1028,6 hPa 0,0 l/m 0,0 km/h (0 Bft) SO 140 0 min 0 W/m 4,3 C 5,5 C 0,0 km/h (0 Bft)
19.12.2016 17:57 5,5 C 92 % 1028,6 hPa 0,0 l/m 0,0 km/h (0 Bft) SO 140 0 min 0 W/m 4,3 C 5,5 C 0,0 km/h (0 Bft)
19.12.2016 18:00 5,5 C 92 % 1028,6 hPa 0,0 l/m 0,0 km/h (0 Bft) SO 140 0 min 0 W/m 4,3 C 5,5 C 0,0 km/h (0 Bft)
19.12.2016 18:03 5,5 C 92 % 1028,6 hPa 0,0 l/m 0,0 km/h (0 Bft) SO 140 0 min 0 W/m 4,3 C 5,5 C 0,0 km/h (0 Bft)
19.12.2016 18:06 5,5 C 92 % 1028,7 hPa 0,0 l/m 0,0 km/h (0 Bft) SO 140 0 min 0 W/m 4,3 C 5,5 C 0,0 km/h (0 Bft)
19.12.2016 18:09 5,5 C 92 % 1028,6 hPa 0,0 l/m 0,0 km/h (0 Bft) SO 140 0 min 0 W/m 4,3 C 5,5 C 0,0 km/h (0 Bft)
19.12.2016 18:12 5,5 C 92 % 1028,6 hPa 0,0 l/m 0,4 km/h (0 Bft) SO 140 0 min 0 W/m 4,3 C 5,5 C 3,2 km/h (1 Bft)
19.12.2016 18:15 5,4 C 92 % 1028,6 hPa 0,0 l/m 0,1 km/h (0 Bft) SO 140 0 min 0 W/m 4,2 C 5,4 C 1,6 km/h (1 Bft)
19.12.2016 18:18 5,4 C 92 % 1028,6 hPa 0,0 l/m 0,0 km/h (0 Bft) SO 140 0 min 0 W/m 4,2 C 5,4 C 0,0 km/h (0 Bft)
19.12.2016 18:21 5,4 C 92 % 1028,6 hPa 0,0 l/m 0,0 km/h (0 Bft) SO 140 0 min 0 W/m 4,2 C 5,4 C 1,6 km/h (1 Bft)
19.12.2016 18:24 5,4 C 92 % 1028,6 hPa 0,0 l/m 0,2 km/h (0 Bft) SO 140 0 min 0 W/m 4,2 C 5,4 C 1,6 km/h (1 Bft)
19.12.2016 18:27 5,4 C 92 % 1028,6 hPa 0,0 l/m 0,7 km/h (0 Bft) SO 140 0 min 0 W/m 4,2 C 5,4 C 3,2 km/h (1 Bft)
19.12.2016 18:30 5,4 C 92 % 1028,6 hPa 0,0 l/m 1,1 km/h (1 Bft) SO 140 0 min 0 W/m 4,2 C 5,4 C 3,2 km/h (1 Bft)
19.12.2016 18:33 5,4 C 92 % 1028,6 hPa 0,0 l/m 2,4 km/h (1 Bft) O 86 0 min 0 W/m 4,2 C 5,4 C 4,8 km/h (1 Bft)
19.12.2016 18:36 5,4 C 92 % 1028,6 hPa 0,0 l/m 0,6 km/h (0 Bft) O 86 0 min 0 W/m 4,2 C 5,4 C 3,2 km/h (1 Bft)
19.12.2016 18:39 5,4 C 92 % 1028,5 hPa 0,0 l/m 0,9 km/h (0 Bft) O 85 0 min 0 W/m 4,2 C 5,4 C 3,2 km/h (1 Bft)
19.12.2016 18:42 5,4 C 92 % 1028,6 hPa 0,0 l/m 0,4 km/h (0 Bft) O 85 0 min 0 W/m 4,2 C 5,4 C 1,6 km/h (1 Bft)
19.12.2016 18:45 5,4 C 92 % 1028,5 hPa 0,0 l/m 0,8 km/h (0 Bft) O-SO 113 0 min 0 W/m 4,2 C 5,4 C 3,2 km/h (1 Bft)
19.12.2016 18:48 5,4 C 92 % 1028,4 hPa 0,0 l/m 1,3 km/h (1 Bft) O-SO 113 0 min 0 W/m 4,2 C 5,4 C 3,2 km/h (1 Bft)
19.12.2016 18:51 5,4 C 92 % 1028,3 hPa 0,0 l/m 1,3 km/h (1 Bft) O-SO 119 0 min 0 W/m 4,2 C 5,4 C 4,8 km/h (1 Bft)
19.12.2016 18:54 5,4 C 92 % 1028,3 hPa 0,0 l/m 1,3 km/h (1 Bft) O-SO 119 0 min 0 W/m 4,2 C 5,4 C 3,2 km/h (1 Bft)
19.12.2016 18:57 5,4 C 92 % 1028,3 hPa 0,0 l/m 3,0 km/h (1 Bft) SO 126 0 min 0 W/m 4,2 C 5,4 C 6,4 km/h (2 Bft)
19.12.2016 19:00 5,4 C 92 % 1028,4 hPa 0,0 l/m 2,0 km/h (1 Bft) SO 126 0 min 0 W/m 4,2 C 5,4 C 4,8 km/h (1 Bft)
19.12.2016 19:03 5,4 C 92 % 1028,4 hPa 0,0 l/m 2,8 km/h (1 Bft) S-SO 150 0 min 0 W/m 4,2 C 5,4 C 4,8 km/h (1 Bft)
19.12.2016 19:06 5,4 C 92 % 1028,4 hPa 0,0 l/m 4,9 km/h (1 Bft) S 180 0 min 0 W/m 4,2 C 5,4 C 9,7 km/h (2 Bft)
19.12.2016 19:09 5,4 C 92 % 1028,4 hPa 0,0 l/m 4,7 km/h (1 Bft) S-SO 149 0 min 0 W/m 4,2 C 5,4 C 9,7 km/h (2 Bft)
19.12.2016 19:12 5,3 C 92 % 1028,4 hPa 0,0 l/m 6,1 km/h (2 Bft) S 182 0 min 0 W/m 4,1 C 5,3 C 11,3 km/h (2 Bft)
19.12.2016 19:15 5,3 C 92 % 1028,4 hPa 0,0 l/m 3,8 km/h (1 Bft) SO 130 0 min 0 W/m 4,1 C 5,3 C 6,4 km/h (2 Bft)
19.12.2016 19:18 5,3 C 92 % 1028,4 hPa 0,0 l/m 3,4 km/h (1 Bft) S-SO 157 0 min 0 W/m 4,1 C 5,3 C 8,0 km/h (2 Bft)
19.12.2016 19:21 5,3 C 92 % 1028,4 hPa 0,0 l/m 4,1 km/h (1 Bft) S-SO 163 0 min 0 W/m 4,1 C 5,3 C 8,0 km/h (2 Bft)
19.12.2016 19:24 5,3 C 92 % 1028,3 hPa 0,0 l/m 2,3 km/h (1 Bft) S-SO 163 0 min 0 W/m 4,1 C 5,3 C 6,4 km/h (2 Bft)
19.12.2016 19:27 5,3 C 92 % 1028,3 hPa 0,0 l/m 2,5 km/h (1 Bft) S-SO 152 0 min 0 W/m 4,1 C 5,3 C 6,4 km/h (2 Bft)
19.12.2016 19:30 5,3 C 92 % 1028,3 hPa 0,0 l/m 1,9 km/h (1 Bft) S-SO 153 0 min 0 W/m 4,1 C 5,3 C 3,2 km/h (1 Bft)
19.12.2016 19:33 5,3 C 92 % 1028,3 hPa 0,0 l/m 2,8 km/h (1 Bft) SO 126 0 min 0 W/m 4,1 C 5,3 C 6,4 km/h (2 Bft)
19.12.2016 19:36 5,3 C 92 % 1028,3 hPa 0,0 l/m 2,3 km/h (1 Bft) S-SO 157 0 min 0 W/m 4,1 C 5,3 C 6,4 km/h (2 Bft)
19.12.2016 19:39 5,3 C 92 % 1028,3 hPa 0,0 l/m 2,2 km/h (1 Bft) S 169 0 min 0 W/m 4,1 C 5,3 C 4,8 km/h (1 Bft)
19.12.2016 19:42 5,3 C 92 % 1028,4 hPa 0,0 l/m 4,1 km/h (1 Bft) S-SO 148 0 min 0 W/m 4,1 C 5,3 C 8,0 km/h (2 Bft)
19.12.2016 19:45 5,3 C 92 % 1028,4 hPa 0,0 l/m 2,6 km/h (1 Bft) SO 143 0 min 0 W/m 4,1 C 5,3 C 3,2 km/h (1 Bft)
19.12.2016 19:48 5,2 C 92 % 1028,5 hPa 0,0 l/m 2,4 km/h (1 Bft) SO 142 0 min 0 W/m 4,0 C 5,2 C 4,8 km/h (1 Bft)
19.12.2016 19:51 5,2 C 92 % 1028,5 hPa 0,0 l/m 3,2 km/h (1 Bft) SO 125 0 min 0 W/m 4,0 C 5,2 C 9,7 km/h (2 Bft)
19.12.2016 19:54 5,2 C 92 % 1028,5 hPa 0,0 l/m 4,1 km/h (1 Bft) SO 127 0 min 0 W/m 4,0 C 5,2 C 9,7 km/h (2 Bft)
19.12.2016 19:57 5,2 C 92 % 1028,6 hPa 0,0 l/m 3,2 km/h (1 Bft) SO 139 0 min 0 W/m 4,0 C 5,2 C 6,4 km/h (2 Bft)
19.12.2016 20:00 5,3 C 92 % 1028,6 hPa 0,0 l/m 2,2 km/h (1 Bft) SO 140 0 min 0 W/m 4,1 C 5,3 C 4,8 km/h (1 Bft)
19.12.2016 20:03 5,2 C 92 % 1028,5 hPa 0,0 l/m 2,3 km/h (1 Bft) S-SO 151 0 min 0 W/m 4,0 C 5,2 C 4,8 km/h (1 Bft)
19.12.2016 20:06 5,3 C 92 % 1028,6 hPa 0,0 l/m 1,9 km/h (1 Bft) SO 145 0 min 0 W/m 4,1 C 5,3 C 4,8 km/h (1 Bft)
19.12.2016 20:09 5,2 C 92 % 1028,7 hPa 0,0 l/m 3,0 km/h (1 Bft) SO 144 0 min 0 W/m 4,0 C 5,2 C 4,8 km/h (1 Bft)
19.12.2016 20:12 5,2 C 92 % 1028,8 hPa 0,0 l/m 2,8 km/h (1 Bft) SO 136 0 min 0 W/m 4,0 C 5,2 C 4,8 km/h (1 Bft)
19.12.2016 20:15 5,3 C 92 % 1028,7 hPa 0,0 l/m 1,4 km/h (1 Bft) SO 136 0 min 0 W/m 4,1 C 5,3 C 3,2 km/h (1 Bft)
19.12.2016 20:18 5,3 C 92 % 1028,7 hPa 0,0 l/m 1,2 km/h (1 Bft) SO 136 0 min 0 W/m 4,1 C 5,3 C 3,2 km/h (1 Bft)
19.12.2016 20:21 5,3 C 92 % 1028,7 hPa 0,0 l/m 1,3 km/h (1 Bft) SO 136 0 min 0 W/m 4,1 C 5,3 C 3,2 km/h (1 Bft)
19.12.2016 20:24 5,3 C 92 % 1028,7 hPa 0,0 l/m 2,9 km/h (1 Bft) SO 137 0 min 0 W/m 4,1 C 5,3 C 4,8 km/h (1 Bft)
19.12.2016 20:27 5,3 C 92 % 1028,6 hPa 0,0 l/m 1,6 km/h (1 Bft) SO 137 0 min 0 W/m 4,1 C 5,3 C 3,2 km/h (1 Bft)
19.12.2016 20:30 5,3 C 92 % 1028,7 hPa 0,0 l/m 1,5 km/h (1 Bft) SO 137 0 min 0 W/m 4,1 C 5,3 C 3,2 km/h (1 Bft)
19.12.2016 20:33 5,3 C 92 % 1028,7 hPa 0,0 l/m 0,9 km/h (0 Bft) SO 137 0 min 0 W/m 4,1 C 5,3 C 3,2 km/h (1 Bft)
19.12.2016 20:36 5,3 C 92 % 1028,7 hPa 0,0 l/m 0,5 km/h (0 Bft) SO 137 0 min 0 W/m 4,1 C 5,3 C 1,6 km/h (1 Bft)
19.12.2016 20:39 5,3 C 93 % 1028,7 hPa 0,0 l/m 0,4 km/h (0 Bft) SO 137 0 min 0 W/m 4,3 C 5,3 C 1,6 km/h (1 Bft)
19.12.2016 20:42 5,3 C 93 % 1028,7 hPa 0,0 l/m 0,0 km/h (0 Bft) SO 137 0 min 0 W/m 4,3 C 5,3 C 1,6 km/h (1 Bft)
19.12.2016 20:45 5,3 C 93 % 1028,7 hPa 0,0 l/m 0,0 km/h (0 Bft) SO 137 0 min 0 W/m 4,3 C 5,3 C 0,0 km/h (0 Bft)
19.12.2016 20:48 5,3 C 93 % 1028,7 hPa 0,0 l/m 0,7 km/h (0 Bft) SO 137 0 min 0 W/m 4,3 C 5,3 C 1,6 km/h (1 Bft)
19.12.2016 20:51 5,2 C 93 % 1028,6 hPa 0,0 l/m 0,7 km/h (0 Bft) SO 137 0 min 0 W/m 4,2 C 5,2 C 3,2 km/h (1 Bft)
19.12.2016 20:54 5,3 C 93 % 1028,6 hPa 0,0 l/m 0,9 km/h (0 Bft) SO 137 0 min 0 W/m 4,3 C 5,3 C 3,2 km/h (1 Bft)
19.12.2016 20:57 5,3 C 93 % 1028,6 hPa 0,0 l/m 0,4 km/h (0 Bft) SO 137 0 min 0 W/m 4,3 C 5,3 C 3,2 km/h (1 Bft)
19.12.2016 21:00 5,2 C 93 % 1028,6 hPa 0,0 l/m 1,0 km/h (0 Bft) SO 137 0 min 0 W/m 4,2 C 5,2 C 3,2 km/h (1 Bft)
19.12.2016 21:03 5,2 C 93 % 1028,6 hPa 0,0 l/m 0,9 km/h (0 Bft) SO 137 0 min 0 W/m 4,2 C 5,2 C 3,2 km/h (1 Bft)
19.12.2016 21:06 5,2 C 93 % 1028,6 hPa 0,0 l/m 1,7 km/h (1 Bft) SO 142 0 min 0 W/m 4,2 C 5,2 C 4,8 km/h (1 Bft)
19.12.2016 21:09 5,2 C 93 % 1028,6 hPa 0,0 l/m 3,6 km/h (1 Bft) S-SO 157 0 min 0 W/m 4,2 C 5,2 C 6,4 km/h (2 Bft)
19.12.2016 21:12 5,2 C 93 % 1028,6 hPa 0,0 l/m 2,6 km/h (1 Bft) S-SO 164 0 min 0 W/m 4,2 C 5,2 C 6,4 km/h (2 Bft)
19.12.2016 21:15 5,2 C 93 % 1028,5 hPa 0,0 l/m 1,5 km/h (1 Bft) S-SO 158 0 min 0 W/m 4,2 C 5,2 C 4,8 km/h (1 Bft)
19.12.2016 21:18 5,2 C 93 % 1028,6 hPa 0,0 l/m 2,4 km/h (1 Bft) S-SO 158 0 min 0 W/m 4,2 C 5,2 C 4,8 km/h (1 Bft)
19.12.2016 21:21 5,2 C 93 % 1028,6 hPa 0,0 l/m 2,2 km/h (1 Bft) S-SO 161 0 min 0 W/m 4,2 C 5,2 C 4,8 km/h (1 Bft)
19.12.2016 21:24 5,2 C 93 % 1028,6 hPa 0,0 l/m 1,2 km/h (1 Bft) S-SO 162 0 min 0 W/m 4,2 C 5,2 C 6,4 km/h (2 Bft)
19.12.2016 21:27 5,2 C 93 % 1028,5 hPa 0,0 l/m 0,5 km/h (0 Bft) S-SO 162 0 min 0 W/m 4,2 C 5,2 C 1,6 km/h (1 Bft)
19.12.2016 21:30 5,2 C 93 % 1028,5 hPa 0,0 l/m 1,3 km/h (1 Bft) S-SO 161 0 min 0 W/m 4,2 C 5,2 C 6,4 km/h (2 Bft)
19.12.2016 21:33 5,2 C 93 % 1028,5 hPa 0,0 l/m 1,7 km/h (1 Bft) S-SO 153 0 min 0 W/m 4,2 C 5,2 C 6,4 km/h (2 Bft)
19.12.2016 21:36 5,2 C 93 % 1028,5 hPa 0,0 l/m 1,7 km/h (1 Bft) SO 143 0 min 0 W/m 4,2 C 5,2 C 4,8 km/h (1 Bft)
19.12.2016 21:39 5,1 C 93 % 1028,6 hPa 0,0 l/m 2,3 km/h (1 Bft) SO 141 0 min 0 W/m 4,1 C 5,1 C 6,4 km/h (2 Bft)
19.12.2016 21:42 5,1 C 93 % 1028,6 hPa 0,0 l/m 2,6 km/h (1 Bft) S-SO 157 0 min 0 W/m 4,1 C 5,1 C 6,4 km/h (2 Bft)
19.12.2016 21:45 5,1 C 94 % 1028,6 hPa 0,0 l/m 3,2 km/h (1 Bft) O-SO 119 0 min 0 W/m 4,2 C 5,1 C 8,0 km/h (2 Bft)
19.12.2016 21:48 5,1 C 94 % 1028,7 hPa 0,0 l/m 2,4 km/h (1 Bft) SO 146 0 min 0 W/m 4,2 C 5,1 C 4,8 km/h (1 Bft)
19.12.2016 21:51 5,1 C 94 % 1028,6 hPa 0,0 l/m 3,4 km/h (1 Bft) SO 132 0 min 0 W/m 4,2 C 5,1 C 6,4 km/h (2 Bft)
19.12.2016 21:54 5,0 C 94 % 1028,6 hPa 0,0 l/m 3,7 km/h (1 Bft) S 174 0 min 0 W/m 4,1 C 5,0 C 8,0 km/h (2 Bft)
19.12.2016 21:57 5,0 C 94 % 1028,7 hPa 0,0 l/m 4,2 km/h (1 Bft) S-SO 161 0 min 0 W/m 4,1 C 5,0 C 9,7 km/h (2 Bft)
19.12.2016 22:00 4,9 C 94 % 1028,7 hPa 0,0 l/m 3,6 km/h (1 Bft) S-SO 155 0 min 0 W/m 4,0 C 4,9 C 9,7 km/h (2 Bft)
19.12.2016 22:03 4,9 C 94 % 1028,8 hPa 0,0 l/m 3,3 km/h (1 Bft) S-SO 168 0 min 0 W/m 4,0 C 4,9 C 9,7 km/h (2 Bft)
19.12.2016 22:06 4,9 C 94 % 1028,8 hPa 0,0 l/m 5,3 km/h (1 Bft) S 171 0 min 0 W/m 4,0 C 4,9 C 11,3 km/h (2 Bft)
19.12.2016 22:09 4,9 C 94 % 1028,7 hPa 0,0 l/m 4,3 km/h (1 Bft) S 178 0 min 0 W/m 4,0 C 4,9 C 8,0 km/h (2 Bft)
19.12.2016 22:12 4,8 C 94 % 1028,6 hPa 0,0 l/m 4,5 km/h (1 Bft) S 169 0 min 0 W/m 3,9 C 4,8 C 8,0 km/h (2 Bft)
19.12.2016 22:15 4,8 C 94 % 1028,6 hPa 0,0 l/m 3,6 km/h (1 Bft) S 171 0 min 0 W/m 3,9 C 4,8 C 8,0 km/h (2 Bft)
19.12.2016 22:18 4,8 C 94 % 1028,6 hPa 0,0 l/m 2,6 km/h (1 Bft) S-SO 150 0 min 0 W/m 3,9 C 4,8 C 4,8 km/h (1 Bft)
19.12.2016 22:21 4,8 C 94 % 1028,6 hPa 0,0 l/m 4,4 km/h (1 Bft) S-SO 165 0 min 0 W/m 3,9 C 4,8 C 8,0 km/h (2 Bft)
19.12.2016 22:24 4,8 C 94 % 1028,7 hPa 0,0 l/m 4,8 km/h (1 Bft) S-SO 168 0 min 0 W/m 3,9 C 4,8 C 8,0 km/h (2 Bft)
19.12.2016 22:27 4,7 C 94 % 1028,7 hPa 0,0 l/m 2,6 km/h (1 Bft) S-SO 156 0 min 0 W/m 3,8 C 4,7 C 6,4 km/h (2 Bft)
19.12.2016 22:30 4,7 C 94 % 1028,8 hPa 0,0 l/m 2,3 km/h (1 Bft) S 173 0 min 0 W/m 3,8 C 4,7 C 8,0 km/h (2 Bft)
19.12.2016 22:33 4,7 C 94 % 1028,9 hPa 0,0 l/m 2,7 km/h (1 Bft) S-SO 157 0 min 0 W/m 3,8 C 4,7 C 6,4 km/h (2 Bft)
19.12.2016 22:36 4,7 C 94 % 1028,8 hPa 0,0 l/m 2,2 km/h (1 Bft) S 179 0 min 0 W/m 3,8 C 4,7 C 4,8 km/h (1 Bft)
19.12.2016 22:39 4,7 C 94 % 1028,8 hPa 0,0 l/m 4,6 km/h (1 Bft) SO 146 0 min 0 W/m 3,8 C 4,7 C 11,3 km/h (2 Bft)
19.12.2016 22:42 4,7 C 94 % 1028,8 hPa 0,0 l/m 4,8 km/h (1 Bft) S 180 0 min 0 W/m 3,8 C 4,7 C 11,3 km/h (2 Bft)
19.12.2016 22:45 4,7 C 94 % 1028,8 hPa 0,0 l/m 3,3 km/h (1 Bft) S-SO 150 0 min 0 W/m 3,8 C 4,7 C 9,7 km/h (2 Bft)
19.12.2016 22:48 4,6 C 94 % 1028,9 hPa 0,0 l/m 4,0 km/h (1 Bft) S-SO 162 0 min 0 W/m 3,7 C 4,6 C 8,0 km/h (2 Bft)
19.12.2016 22:51 4,6 C 94 % 1028,9 hPa 0,0 l/m 5,6 km/h (2 Bft) S-SO 153 0 min 0 W/m 3,7 C 4,6 C 11,3 km/h (2 Bft)
19.12.2016 22:54 4,6 C 94 % 1028,9 hPa 0,0 l/m 5,1 km/h (1 Bft) SO 135 0 min 0 W/m 3,7 C 4,6 C 11,3 km/h (2 Bft)
19.12.2016 22:57 4,6 C 94 % 1029,0 hPa 0,0 l/m 4,1 km/h (1 Bft) SO 128 0 min 0 W/m 3,7 C 4,6 C 8,0 km/h (2 Bft)
19.12.2016 23:00 4,6 C 94 % 1029,1 hPa 0,0 l/m 4,1 km/h (1 Bft) SO 140 0 min 0 W/m 3,7 C 4,6 C 8,0 km/h (2 Bft)
19.12.2016 23:03 4,5 C 94 % 1029,0 hPa 0,0 l/m 3,8 km/h (1 Bft) S 181 0 min 0 W/m 3,6 C 4,5 C 11,3 km/h (2 Bft)
19.12.2016 23:06 4,5 C 94 % 1029,0 hPa 0,0 l/m 4,4 km/h (1 Bft) S-SO 150 0 min 0 W/m 3,6 C 4,5 C 11,3 km/h (2 Bft)
19.12.2016 23:09 4,4 C 94 % 1029,0 hPa 0,0 l/m 4,3 km/h (1 Bft) SO 137 0 min 0 W/m 3,5 C 4,4 C 12,9 km/h (3 Bft)
19.12.2016 23:12 4,4 C 94 % 1029,1 hPa 0,0 l/m 2,7 km/h (1 Bft) SO 133 0 min 0 W/m 3,5 C 4,4 C 4,8 km/h (1 Bft)
19.12.2016 23:15 4,4 C 94 % 1028,9 hPa 0,0 l/m 4,8 km/h (1 Bft) S-SO 166 0 min 0 W/m 3,5 C 4,4 C 9,7 km/h (2 Bft)
19.12.2016 23:18 4,4 C 94 % 1028,9 hPa 0,0 l/m 5,0 km/h (1 Bft) SO 126 0 min 0 W/m 3,5 C 4,4 C 8,0 km/h (2 Bft)
19.12.2016 23:21 4,4 C 94 % 1028,8 hPa 0,0 l/m 3,4 km/h (1 Bft) S 182 0 min 0 W/m 3,5 C 4,4 C 8,0 km/h (2 Bft)
19.12.2016 23:24 4,4 C 94 % 1028,8 hPa 0,0 l/m 2,5 km/h (1 Bft) S-SO 156 0 min 0 W/m 3,5 C 4,4 C 4,8 km/h (1 Bft)
19.12.2016 23:27 4,3 C 94 % 1028,8 hPa 0,0 l/m 2,6 km/h (1 Bft) S-SO 151 0 min 0 W/m 3,4 C 4,3 C 4,8 km/h (1 Bft)
19.12.2016 23:30 4,3 C 94 % 1028,7 hPa 0,0 l/m 2,4 km/h (1 Bft) SO 134 0 min 0 W/m 3,4 C 4,3 C 6,4 km/h (2 Bft)
19.12.2016 23:33 4,3 C 94 % 1028,8 hPa 0,0 l/m 2,9 km/h (1 Bft) S-SO 153 0 min 0 W/m 3,4 C 4,3 C 4,8 km/h (1 Bft)
19.12.2016 23:36 4,3 C 94 % 1028,8 hPa 0,0 l/m 2,8 km/h (1 Bft) SO 143 0 min 0 W/m 3,4 C 4,3 C 4,8 km/h (1 Bft)
19.12.2016 23:39 4,3 C 94 % 1028,7 hPa 0,0 l/m 3,7 km/h (1 Bft) SO 140 0 min 0 W/m 3,4 C 4,3 C 8,0 km/h (2 Bft)
19.12.2016 23:42 4,3 C 94 % 1028,7 hPa 0,0 l/m 2,4 km/h (1 Bft) S-SO 160 0 min 0 W/m 3,4 C 4,3 C 6,4 km/h (2 Bft)
19.12.2016 23:45 4,3 C 94 % 1028,7 hPa 0,0 l/m 2,1 km/h (1 Bft) S 173 0 min 0 W/m 3,4 C 4,3 C 6,4 km/h (2 Bft)
19.12.2016 23:48 4,3 C 94 % 1028,8 hPa 0,0 l/m 3,4 km/h (1 Bft) S-SO 150 0 min 0 W/m 3,4 C 4,3 C 8,0 km/h (2 Bft)
19.12.2016 23:51 4,3 C 94 % 1028,8 hPa 0,0 l/m 3,5 km/h (1 Bft) S-SO 159 0 min 0 W/m 3,4 C 4,3 C 9,7 km/h (2 Bft)
19.12.2016 23:54 4,3 C 94 % 1028,8 hPa 0,0 l/m 5,2 km/h (1 Bft) SO 134 0 min 0 W/m 3,4 C 4,3 C 12,9 km/h (3 Bft)
19.12.2016 23:57 4,3 C 94 % 1028,8 hPa 0,0 l/m 4,0 km/h (1 Bft) S-SO 161 0 min 0 W/m 3,4 C 4,3 C 8,0 km/h (2 Bft)
_ Min-Zeit 23:27 16:06 18:51 - 00:00 - - - - 23:27 23:27 00:00
Minimum _ 4,3 C 92 % 1028,3 hPa - 0,0 km/h (0 Bft) - - - - 3,4 C 4,3 C 0,0 km/h (0 Bft)
_ Max-Zeit 12:36 00:00 00:00 00:00 19:12 - - 00:00 12:21 12:36 12:36 23:09
Maximum _ 7,0 C 98 % 1031,2 hPa 0,0 l/m 6,1 km/h
S (2 Bft)
- - 0 min 69 W/m 6,4 C 7,0 C 12,9 km/h
SO (3 Bft)
Durchschnitt _ 5,3 C 96 % 1029,6 hPa #0,0 l/m 1,3 km/h (1 Bft) SO - #0 min. 34 W/m 4,7 C 5,3 C 3,3 km/h (1 Bft)
2016 Cux-Wetter.de -Die Nutzung der Wetterdaten nur mit ausdrcklicher Genehmigung